Time,TemperatureF,DewpointF,PressureIn,WindDirection,WindDirectionDegrees,WindSpeedMPH,WindSpeedGustMPH,Humidity,HourlyPrecipIn,Conditions,Clouds,dailyrainin,SoftwareType,DateUTC
2013-02-14 00:02:00,40.3,7.3,28.23,SSW,207,0.0,4.0,25,0.00,,,0.00,VWS V14.00,2013-02-14 06:02:00,
2013-02-14 00:07:00,39.6,6.7,28.23,SSW,206,0.0,4.0,25,0.00,,,0.00,VWS V14.00,2013-02-14 06:07:00,
2013-02-14 00:08:00,39.7,6.8,28.23,SSW,206,0.0,4.0,25,0.00,,,0.00,VWS V14.00,2013-02-14 06:08:00,
2013-02-14 00:12:00,39.7,7.7,28.23,SSW,206,0.0,4.0,26,0.00,,,0.00,VWS V14.00,2013-02-14 06:12:00,
2013-02-14 00:13:00,39.6,7.5,28.23,SSW,206,0.0,4.0,26,0.00,,,0.00,VWS V14.00,2013-02-14 06:13:00,
2013-02-14 00:14:00,39.7,7.7,28.23,SSW,206,0.0,0.0,26,0.00,,,0.00,VWS V14.00,2013-02-14 06:14:00,
2013-02-14 00:18:00,39.4,7.4,28.23,West,271,0.0,2.7,26,0.00,,,0.00,VWS V14.00,2013-02-14 06:18:00,
2013-02-14 00:19:00,39.2,7.2,28.23,West,271,0.0,2.7,26,0.00,,,0.00,VWS V14.00,2013-02-14 06:19:00,
2013-02-14 00:20:00,39.2,7.2,28.23,West,271,0.0,2.7,26,0.00,,,0.00,VWS V14.00,2013-02-14 06:20:00,
2013-02-14 00:23:00,39.4,8.2,28.23,West,265,0.0,2.7,27,0.00,,,0.00,VWS V14.00,2013-02-14 06:23:00,
2013-02-14 00:25:00,39.2,8.0,28.23,West,264,0.0,2.7,27,0.00,,,0.00,VWS V14.00,2013-02-14 06:25:00,
2013-02-14 00:27:00,39.2,8.0,28.23,West,260,0.0,2.7,27,0.00,,,0.00,VWS V14.00,2013-02-14 06:27:00,
2013-02-14 00:28:00,39.2,8.0,28.23,West,260,0.0,2.7,27,0.00,,,0.00,VWS V14.00,2013-02-14 06:28:00,
2013-02-14 00:30:00,39.2,8.0,28.23,West,260,0.0,0.0,27,0.00,,,0.00,VWS V14.00,2013-02-14 06:30:00,
2013-02-14 00:33:00,38.8,7.7,28.23,West,260,0.0,0.0,27,0.00,,,0.00,VWS V14.00,2013-02-14 06:33:00,
2013-02-14 00:34:00,38.7,7.6,28.23,West,260,0.0,0.0,27,0.00,,,0.00,VWS V14.00,2013-02-14 06:34:00,
2013-02-14 00:35:00,38.5,7.4,28.23,West,260,0.0,0.0,27,0.00,,,0.00,VWS V14.00,2013-02-14 06:35:00,
2013-02-14 00:36:00,38.5,7.4,28.23,West,260,0.0,0.0,27,0.00,,,0.00,VWS V14.00,2013-02-14 06:36:00,
2013-02-14 00:39:00,38.1,7.1,28.23,West,260,0.0,0.0,27,0.00,,,0.00,VWS V14.00,2013-02-14 06:39:00,
2013-02-14 00:41:00,37.8,6.8,28.23,West,260,0.0,0.0,27,0.00,,,0.00,VWS V14.00,2013-02-14 06:41:00,
2013-02-14 00:42:00,37.8,6.8,28.23,West,260,0.0,0.0,27,0.00,,,0.00,VWS V14.00,2013-02-14 06:42:00,
2013-02-14 00:44:00,37.6,7.4,28.23,West,260,0.0,0.0,28,0.00,,,0.00,VWS V14.00,2013-02-14 06:44:00,
2013-02-14 00:45:00,37.6,7.4,28.23,West,260,0.0,0.0,28,0.00,,,0.00,VWS V14.00,2013-02-14 06:45:00,
2013-02-14 00:46:00,37.6,7.4,28.23,West,260,0.0,0.0,28,0.00,,,0.00,VWS V14.00,2013-02-14 06:46:00,
2013-02-14 00:48:00,37.6,7.4,28.23,West,260,0.0,0.0,28,0.00,,,0.00,VWS V14.00,2013-02-14 06:48:00,
2013-02-14 00:50:00,37.6,7.4,28.23,West,260,0.0,0.0,28,0.00,,,0.00,VWS V14.00,2013-02-14 06:50:00,
2013-02-14 00:51:00,37.6,7.4,28.23,West,260,0.0,0.0,28,0.00,,,0.00,VWS V14.00,2013-02-14 06:51:00,
2013-02-14 00:52:00,37.6,7.4,28.23,West,260,0.0,0.0,28,0.00,,,0.00,VWS V14.00,2013-02-14 06:52:00,
2013-02-14 00:54:00,37.6,8.2,28.23,West,260,0.0,0.0,29,0.00,,,0.00,VWS V14.00,2013-02-14 06:54:00,
2013-02-14 00:56:00,37.4,8.1,28.23,West,260,0.0,0.0,29,0.00,,,0.00,VWS V14.00,2013-02-14 06:56:00,
2013-02-14 00:57:00,37.4,8.1,28.23,West,260,0.0,0.0,29,0.00,,,0.00,VWS V14.00,2013-02-14 06:57:00,
2013-02-14 01:01:00,37.0,7.8,28.23,West,260,0.0,0.0,29,0.00,,,0.00,VWS V14.00,2013-02-14 07:01:00,
2013-02-14 01:02:00,37.0,7.8,28.23,West,260,0.0,0.0,29,0.00,,,0.00,VWS V14.00,2013-02-14 07:02:00,
2013-02-14 01:06:00,37.2,8.6,28.23,West,260,0.0,0.0,30,0.00,,,0.00,VWS V14.00,2013-02-14 07:06:00,
2013-02-14 01:07:00,37.2,9.4,28.23,West,260,0.0,0.0,31,0.00,,,0.00,VWS V14.00,2013-02-14 07:07:00,
2013-02-14 01:08:00,37.2,9.4,28.23,West,260,0.0,0.0,31,0.00,,,0.00,VWS V14.00,2013-02-14 07:08:00,
2013-02-14 01:11:00,37.0,9.2,28.23,West,260,0.0,0.0,31,0.00,,,0.00,VWS V14.00,2013-02-14 07:11:00,
2013-02-14 01:13:00,37.0,8.5,28.23,West,260,0.0,0.0,30,0.00,,,0.00,VWS V14.00,2013-02-14 07:13:00,
2013-02-14 01:14:00,37.0,8.5,28.23,West,260,0.0,0.0,30,0.00,,,0.00,VWS V14.00,2013-02-14 07:14:00,
2013-02-14 01:17:00,36.9,9.1,28.23,West,260,0.0,0.0,31,0.00,,,0.00,VWS V14.00,2013-02-14 07:17:00,
2013-02-14 01:18:00,36.9,9.1,28.23,West,260,0.0,0.0,31,0.00,,,0.00,VWS V14.00,2013-02-14 07:18:00,
2013-02-14 01:19:00,36.9,9.8,28.23,West,260,0.0,0.0,32,0.00,,,0.00,VWS V14.00,2013-02-14 07:19:00,
2013-02-14 01:20:00,36.9,9.8,28.23,West,260,0.0,0.0,32,0.00,,,0.00,VWS V14.00,2013-02-14 07:20:00,
2013-02-14 01:23:00,37.0,9.9,28.23,West,260,0.0,0.0,32,0.00,,,0.00,VWS V14.00,2013-02-14 07:23:00,
2013-02-14 01:24:00,37.0,9.9,28.23,West,260,0.0,0.0,32,0.00,,,0.00,VWS V14.00,2013-02-14 07:24:00,
2013-02-14 01:25:00,37.0,9.9,28.23,West,260,0.0,0.0,32,0.00,,,0.00,VWS V14.00,2013-02-14 07:25:00,
2013-02-14 01:26:00,37.0,9.2,28.23,West,260,0.0,0.0,31,0.00,,,0.00,VWS V14.00,2013-02-14 07:26:00,
2013-02-14 01:28:00,36.9,9.1,28.23,West,260,0.0,0.0,31,0.00,,,0.00,VWS V14.00,2013-02-14 07:28:00,
2013-02-14 01:30:00,36.9,9.8,28.23,West,260,0.0,0.0,32,0.00,,,0.00,VWS V14.00,2013-02-14 07:30:00,
2013-02-14 01:31:00,36.9,9.8,28.23,West,260,0.0,0.0,32,0.00,,,0.00,VWS V14.00,2013-02-14 07:31:00,
2013-02-14 01:33:00,36.9,9.8,28.23,West,260,0.0,0.0,32,0.00,,,0.00,VWS V14.00,2013-02-14 07:33:00,
2013-02-14 01:36:00,36.9,9.8,28.23,West,260,0.0,0.0,32,0.00,,,0.00,VWS V14.00,2013-02-14 07:36:00,
2013-02-14 01:38:00,36.9,9.8,28.23,West,260,0.0,0.0,32,0.00,,,0.00,VWS V14.00,2013-02-14 07:38:00,
2013-02-14 01:41:00,36.9,9.8,28.23,West,260,0.0,0.0,32,0.00,,,0.00,VWS V14.00,2013-02-14 07:41:00,
2013-02-14 01:43:00,36.9,9.8,28.23,West,260,0.0,0.0,32,0.00,,,0.00,VWS V14.00,2013-02-14 07:43:00,
2013-02-14 01:46:00,36.7,9.6,28.23,West,260,0.0,0.0,32,0.00,,,0.00,VWS V14.00,2013-02-14 07:46:00,
2013-02-14 01:47:00,36.7,9.6,28.23,West,260,0.0,0.0,32,0.00,,,0.00,VWS V14.00,2013-02-14 07:47:00,
2013-02-14 01:49:00,36.5,8.8,28.23,West,260,0.0,0.0,31,0.00,,,0.00,VWS V14.00,2013-02-14 07:49:00,
2013-02-14 01:52:00,36.1,9.1,28.23,West,260,0.0,0.0,32,0.00,,,0.00,VWS V14.00,2013-02-14 07:52:00,
2013-02-14 01:53:00,36.3,9.3,28.23,West,260,0.0,0.0,32,0.00,,,0.00,VWS V14.00,2013-02-14 07:53:00,
2013-02-14 01:54:00,36.3,9.3,28.23,West,260,0.0,0.0,32,0.00,,,0.00,VWS V14.00,2013-02-14 07:54:00,
2013-02-14 01:57:00,36.3,8.6,28.23,West,260,0.0,0.0,31,0.00,,,0.00,VWS V14.00,2013-02-14 07:57:00,
2013-02-14 01:58:00,36.3,8.6,28.23,West,260,0.0,0.0,31,0.00,,,0.00,VWS V14.00,2013-02-14 07:58:00,
2013-02-14 02:00:00,36.3,8.6,28.23,West,260,0.0,0.0,31,0.00,,,0.00,VWS V14.00,2013-02-14 08:00:00,
2013-02-14 02:03:00,35.8,9.5,28.23,West,260,0.0,0.0,33,0.00,,,0.00,VWS V14.00,2013-02-14 08:03:00,
2013-02-14 02:04:00,35.8,9.5,28.23,West,260,0.0,0.0,33,0.00,,,0.00,VWS V14.00,2013-02-14 08:04:00,
2013-02-14 02:05:00,35.6,9.4,28.23,West,260,0.0,0.0,33,0.00,,,0.00,VWS V14.00,2013-02-14 08:05:00,
2013-02-14 02:09:00,35.4,9.9,28.23,West,260,0.0,0.0,34,0.00,,,0.00,VWS V14.00,2013-02-14 08:09:00,
2013-02-14 02:11:00,35.1,9.5,28.23,West,260,0.0,0.0,34,0.00,,,0.00,VWS V14.00,2013-02-14 08:11:00,
2013-02-14 02:14:00,35.4,9.9,28.23,West,260,0.0,0.0,34,0.00,,,0.00,VWS V14.00,2013-02-14 08:14:00,
2013-02-14 02:15:00,35.4,9.9,28.23,West,260,0.0,0.0,34,0.00,,,0.00,VWS V14.00,2013-02-14 08:15:00,
2013-02-14 02:18:00,35.4,9.2,28.23,West,260,0.0,0.0,33,0.00,,,0.00,VWS V14.00,2013-02-14 08:18:00,
2013-02-14 02:19:00,35.4,9.9,28.23,West,260,0.0,0.0,34,0.00,,,0.00,VWS V14.00,2013-02-14 08:19:00,
2013-02-14 02:20:00,35.4,9.9,28.23,West,260,0.0,0.0,34,0.00,,,0.00,VWS V14.00,2013-02-14 08:20:00,
2013-02-14 02:24:00,35.2,10.3,28.23,West,260,0.0,0.0,35,0.00,,,0.00,VWS V14.00,2013-02-14 08:24:00,
2013-02-14 02:25:00,35.2,10.3,28.23,West,260,0.0,0.0,35,0.00,,,0.00,VWS V14.00,2013-02-14 08:25:00,
2013-02-14 02:29:00,35.2,10.3,28.23,West,260,0.0,0.0,35,0.00,,,0.00,VWS V14.00,2013-02-14 08:29:00,
2013-02-14 02:30:00,35.1,10.2,28.23,West,260,0.0,0.0,35,0.00,,,0.00,VWS V14.00,2013-02-14 08:30:00,
2013-02-14 02:31:00,35.1,10.8,28.23,West,260,0.0,0.0,36,0.00,,,0.00,VWS V14.00,2013-02-14 08:31:00,
2013-02-14 02:34:00,34.9,10.6,28.23,West,260,0.0,0.0,36,0.00,,,0.00,VWS V14.00,2013-02-14 08:34:00,
2013-02-14 02:35:00,34.9,10.6,28.23,West,260,0.0,0.0,36,0.00,,,0.00,VWS V14.00,2013-02-14 08:35:00,
2013-02-14 02:38:00,34.9,10.6,28.23,West,260,0.0,0.0,36,0.00,,,0.00,VWS V14.00,2013-02-14 08:38:00,
2013-02-14 02:40:00,35.1,11.4,28.23,West,260,0.0,0.0,37,0.00,,,0.00,VWS V14.00,2013-02-14 08:40:00,
2013-02-14 02:41:00,35.2,11.6,28.23,West,260,0.0,0.0,37,0.00,,,0.00,VWS V14.00,2013-02-14 08:41:00,
2013-02-14 02:43:00,35.2,12.2,28.23,West,260,0.0,0.0,38,0.00,,,0.00,VWS V14.00,2013-02-14 08:43:00,
2013-02-14 02:45:00,35.1,11.4,28.23,West,260,0.0,0.0,37,0.00,,,0.00,VWS V14.00,2013-02-14 08:45:00,
2013-02-14 02:46:00,35.1,11.4,28.23,West,260,0.0,0.0,37,0.00,,,0.00,VWS V14.00,2013-02-14 08:46:00,
2013-02-14 02:50:00,34.9,10.6,28.20,West,260,0.0,0.0,36,0.00,,,0.00,VWS V14.00,2013-02-14 08:50:00,
2013-02-14 02:51:00,34.9,10.6,28.20,West,260,0.0,0.0,36,0.00,,,0.00,VWS V14.00,2013-02-14 08:51:00,
2013-02-14 02:52:00,34.9,10.6,28.20,West,260,0.0,0.0,36,0.00,,,0.00,VWS V14.00,2013-02-14 08:52:00,
2013-02-14 02:55:00,34.3,10.2,28.20,West,260,0.0,0.0,36,0.00,,,0.00,VWS V14.00,2013-02-14 08:55:00,
2013-02-14 02:57:00,34.3,10.2,28.20,West,260,0.0,0.0,36,0.00,,,0.00,VWS V14.00,2013-02-14 08:57:00,
2013-02-14 02:59:00,34.2,10.0,28.20,West,260,0.0,0.0,36,0.00,,,0.00,VWS V14.00,2013-02-14 08:59:00,
2013-02-14 03:01:00,34.0,9.9,28.20,West,260,0.0,0.0,36,0.00,,,0.00,VWS V14.00,2013-02-14 09:01:00,
2013-02-14 03:02:00,34.0,9.9,28.20,West,260,0.0,0.0,36,0.00,,,0.00,VWS V14.00,2013-02-14 09:02:00,
2013-02-14 03:04:00,34.0,9.9,28.20,West,260,0.0,0.0,36,0.00,,,0.00,VWS V14.00,2013-02-14 09:04:00,
2013-02-14 03:07:00,34.0,10.5,28.20,West,260,0.0,0.0,37,0.00,,,0.00,VWS V14.00,2013-02-14 09:07:00,
2013-02-14 03:08:00,34.2,11.2,28.20,West,260,0.0,0.0,38,0.00,,,0.00,VWS V14.00,2013-02-14 09:08:00,
2013-02-14 03:09:00,34.3,11.4,28.20,West,260,0.0,0.0,38,0.00,,,0.00,VWS V14.00,2013-02-14 09:09:00,
2013-02-14 03:12:00,34.2,11.8,28.20,West,260,0.0,0.0,39,0.00,,,0.00,VWS V14.00,2013-02-14 09:12:00,
2013-02-14 03:13:00,34.3,11.4,28.20,West,260,0.0,0.0,38,0.00,,,0.00,VWS V14.00,2013-02-14 09:13:00,
2013-02-14 03:14:00,34.3,11.4,28.20,West,260,0.0,0.0,38,0.00,,,0.00,VWS V14.00,2013-02-14 09:14:00,
2013-02-14 03:18:00,34.3,10.8,28.20,West,260,0.0,0.0,37,0.00,,,0.00,VWS V14.00,2013-02-14 09:18:00,
2013-02-14 03:19:00,34.3,11.4,28.20,West,260,0.0,0.0,38,0.00,,,0.00,VWS V14.00,2013-02-14 09:19:00,
2013-02-14 03:23:00,34.2,10.6,28.20,West,260,0.0,0.0,37,0.00,,,0.00,VWS V14.00,2013-02-14 09:23:00,
2013-02-14 03:24:00,34.2,10.6,28.20,West,260,0.0,0.0,37,0.00,,,0.00,VWS V14.00,2013-02-14 09:24:00,
2013-02-14 03:25:00,34.2,10.6,28.20,West,260,0.0,0.0,37,0.00,,,0.00,VWS V14.00,2013-02-14 09:25:00,
2013-02-14 03:28:00,34.3,11.4,28.20,West,260,0.0,0.0,38,0.00,,,0.00,VWS V14.00,2013-02-14 09:28:00,
2013-02-14 03:29:00,34.3,11.4,28.20,West,260,0.0,0.0,38,0.00,,,0.00,VWS V14.00,2013-02-14 09:29:00,
2013-02-14 03:30:00,34.3,11.4,28.20,West,260,0.0,0.0,38,0.00,,,0.00,VWS V14.00,2013-02-14 09:30:00,
2013-02-14 03:32:00,34.3,12.0,28.20,West,260,0.0,0.0,39,0.00,,,0.00,VWS V14.00,2013-02-14 09:32:00,
2013-02-14 03:34:00,34.3,12.0,28.20,West,260,0.0,0.0,39,0.00,,,0.00,VWS V14.00,2013-02-14 09:34:00,
2013-02-14 03:35:00,34.3,12.0,28.20,West,260,0.0,0.0,39,0.00,,,0.00,VWS V14.00,2013-02-14 09:35:00,
2013-02-14 03:37:00,34.2,11.8,28.20,West,260,0.0,0.0,39,0.00,,,0.00,VWS V14.00,2013-02-14 09:37:00,
2013-02-14 03:39:00,34.2,11.8,28.20,West,260,0.0,0.0,39,0.00,,,0.00,VWS V14.00,2013-02-14 09:39:00,
2013-02-14 03:40:00,34.2,11.8,28.20,West,260,0.0,0.0,39,0.00,,,0.00,VWS V14.00,2013-02-14 09:40:00,
2013-02-14 03:42:00,34.2,11.2,28.20,West,260,0.0,0.0,38,0.00,,,0.00,VWS V14.00,2013-02-14 09:42:00,
2013-02-14 03:45:00,34.3,11.4,28.20,West,260,0.0,0.0,38,0.00,,,0.00,VWS V14.00,2013-02-14 09:45:00,
2013-02-14 03:47:00,34.3,11.4,28.20,West,260,0.0,0.0,38,0.00,,,0.00,VWS V14.00,2013-02-14 09:47:00,
2013-02-14 03:50:00,34.3,11.4,28.20,West,260,0.0,0.0,38,0.00,,,0.00,VWS V14.00,2013-02-14 09:50:00,
2013-02-14 03:51:00,34.0,11.1,28.20,West,260,0.0,0.0,38,0.00,,,0.00,VWS V14.00,2013-02-14 09:51:00,
2013-02-14 03:52:00,34.0,11.6,28.20,West,260,0.0,0.0,39,0.00,,,0.00,VWS V14.00,2013-02-14 09:52:00,
2013-02-14 03:56:00,33.6,11.9,28.20,West,260,0.0,0.0,40,0.00,,,0.00,VWS V14.00,2013-02-14 09:56:00,
2013-02-14 03:58:00,33.4,11.7,28.20,West,260,0.0,0.0,40,0.00,,,0.00,VWS V14.00,2013-02-14 09:58:00,
2013-02-14 04:00:00,33.4,11.7,28.20,West,260,0.0,0.0,40,0.00,,,0.00,VWS V14.00,2013-02-14 10:00:00,
2013-02-14 04:01:00,33.3,12.1,28.20,West,260,0.0,0.0,41,0.00,,,0.00,VWS V14.00,2013-02-14 10:01:00,
2013-02-14 04:03:00,33.3,12.1,28.20,West,260,0.0,0.0,41,0.00,,,0.00,VWS V14.00,2013-02-14 10:03:00,
2013-02-14 04:06:00,33.3,12.1,28.20,West,260,0.0,0.0,41,0.00,,,0.00,VWS V14.00,2013-02-14 10:06:00,
2013-02-14 04:07:00,33.3,12.1,28.20,West,260,0.0,0.0,41,0.00,,,0.00,VWS V14.00,2013-02-14 10:07:00,
2013-02-14 04:08:00,33.3,12.1,28.20,West,260,0.0,0.0,41,0.00,,,0.00,VWS V14.00,2013-02-14 10:08:00,
2013-02-14 04:11:00,33.3,11.0,28.20,West,260,0.0,0.0,39,0.00,,,0.00,VWS V14.00,2013-02-14 10:11:00,
2013-02-14 04:12:00,33.3,11.0,28.20,West,260,0.0,0.0,39,0.00,,,0.00,VWS V14.00,2013-02-14 10:12:00,
2013-02-14 04:14:00,33.3,11.0,28.20,West,260,0.0,0.0,39,0.00,,,0.00,VWS V14.00,2013-02-14 10:14:00,
2013-02-14 04:16:00,33.3,11.6,28.20,West,260,0.0,0.0,40,0.00,,,0.00,VWS V14.00,2013-02-14 10:16:00,
2013-02-14 04:17:00,33.3,11.6,28.20,West,260,0.0,0.0,40,0.00,,,0.00,VWS V14.00,2013-02-14 10:17:00,
2013-02-14 04:19:00,33.1,12.0,28.20,West,260,0.0,0.0,41,0.00,,,0.00,VWS V14.00,2013-02-14 10:19:00,
2013-02-14 04:22:00,33.1,12.5,28.20,West,260,0.0,0.0,42,0.00,,,0.00,VWS V14.00,2013-02-14 10:22:00,
2013-02-14 04:24:00,33.1,12.5,28.20,West,260,0.0,0.0,42,0.00,,,0.00,VWS V14.00,2013-02-14 10:24:00,
2013-02-14 04:27:00,33.3,13.2,28.20,West,260,0.0,0.0,43,0.00,,,0.00,VWS V14.00,2013-02-14 10:27:00,
2013-02-14 04:28:00,33.3,13.2,28.20,West,260,0.0,0.0,43,0.00,,,0.00,VWS V14.00,2013-02-14 10:28:00,
2013-02-14 04:29:00,33.1,13.0,28.20,West,260,0.0,0.0,43,0.00,,,0.00,VWS V14.00,2013-02-14 10:29:00,
2013-02-14 04:33:00,33.1,12.0,28.20,West,260,0.0,0.0,41,0.00,,,0.00,VWS V14.00,2013-02-14 10:33:00,
2013-02-14 04:34:00,32.9,11.8,28.20,West,260,0.0,0.0,41,0.00,,,0.00,VWS V14.00,2013-02-14 10:34:00,
2013-02-14 04:35:00,32.9,12.3,28.20,West,260,0.0,0.0,42,0.00,,,0.00,VWS V14.00,2013-02-14 10:35:00,
2013-02-14 04:39:00,32.7,12.7,28.20,West,260,0.0,0.0,43,0.00,,,0.00,VWS V14.00,2013-02-14 10:39:00,
2013-02-14 04:41:00,32.9,13.9,28.20,West,260,0.0,0.0,45,0.00,,,0.00,VWS V14.00,2013-02-14 10:41:00,
2013-02-14 04:44:00,33.1,14.6,28.20,West,260,0.0,0.0,46,0.00,,,0.00,VWS V14.00,2013-02-14 10:44:00,
2013-02-14 04:45:00,33.1,15.1,28.20,West,260,0.0,0.0,47,0.00,,,0.00,VWS V14.00,2013-02-14 10:45:00,
2013-02-14 04:46:00,33.1,15.1,28.20,West,260,0.0,0.0,47,0.00,,,0.00,VWS V14.00,2013-02-14 10:46:00,
2013-02-14 04:49:00,33.1,13.6,28.20,West,260,0.0,0.0,44,0.00,,,0.00,VWS V14.00,2013-02-14 10:49:00,
2013-02-14 04:50:00,33.1,13.0,28.20,West,260,0.0,0.0,43,0.00,,,0.00,VWS V14.00,2013-02-14 10:50:00,
2013-02-14 04:51:00,33.1,12.5,28.20,West,260,0.0,0.0,42,0.00,,,0.00,VWS V14.00,2013-02-14 10:51:00,
2013-02-14 04:55:00,32.9,11.2,28.20,West,260,0.0,0.0,40,0.00,,,0.00,VWS V14.00,2013-02-14 10:55:00,
2013-02-14 04:56:00,32.9,11.2,28.20,West,260,0.0,0.0,40,0.00,,,0.00,VWS V14.00,2013-02-14 10:56:00,
2013-02-14 04:57:00,33.1,12.0,28.20,West,260,0.0,0.0,41,0.00,,,0.00,VWS V14.00,2013-02-14 10:57:00,
2013-02-14 05:01:00,33.3,15.2,28.20,West,260,0.0,0.0,47,0.00,,,0.00,VWS V14.00,2013-02-14 11:01:00,
2013-02-14 05:02:00,33.4,16.8,28.20,West,260,0.0,0.0,50,0.00,,,0.00,VWS V14.00,2013-02-14 11:02:00,
2013-02-14 05:06:00,33.1,18.3,28.20,West,260,0.0,0.0,54,0.00,,,0.00,VWS V14.00,2013-02-14 11:06:00,
2013-02-14 05:09:00,32.9,17.7,28.20,West,260,0.0,0.0,53,0.00,,,0.00,VWS V14.00,2013-02-14 11:09:00,
2013-02-14 05:10:00,32.9,17.2,28.20,West,260,0.0,0.0,52,0.00,,,0.00,VWS V14.00,2013-02-14 11:10:00,
2013-02-14 05:12:00,33.1,17.8,28.20,West,260,0.0,0.0,53,0.00,,,0.00,VWS V14.00,2013-02-14 11:12:00,
2013-02-14 05:13:00,33.1,17.8,28.20,West,260,0.0,0.0,53,0.00,,,0.00,VWS V14.00,2013-02-14 11:13:00,
2013-02-14 05:14:00,33.1,18.3,28.20,West,260,0.0,0.0,54,0.00,,,0.00,VWS V14.00,2013-02-14 11:14:00,
2013-02-14 05:15:00,33.1,18.7,28.20,West,260,0.0,0.0,55,0.00,,,0.00,VWS V14.00,2013-02-14 11:15:00,
2013-02-14 05:17:00,33.1,18.3,28.20,West,260,0.0,0.0,54,0.00,,,0.00,VWS V14.00,2013-02-14 11:17:00,
2013-02-14 05:18:00,33.1,17.8,28.20,West,260,0.0,0.0,53,0.00,,,0.00,VWS V14.00,2013-02-14 11:18:00,
2013-02-14 05:20:00,32.9,16.3,28.20,West,260,0.0,0.0,50,0.00,,,0.00,VWS V14.00,2013-02-14 11:20:00,
2013-02-14 05:21:00,32.9,15.4,28.20,West,260,0.0,0.0,48,0.00,,,0.00,VWS V14.00,2013-02-14 11:21:00,
2013-02-14 05:23:00,32.7,14.2,28.20,West,260,0.0,0.0,46,0.00,,,0.00,VWS V14.00,2013-02-14 11:23:00,
2013-02-14 05:26:00,32.4,12.9,28.20,West,260,0.0,0.0,44,0.00,,,0.00,VWS V14.00,2013-02-14 11:26:00,
2013-02-14 05:27:00,32.2,12.2,28.20,West,260,0.0,0.0,43,0.00,,,0.00,VWS V14.00,2013-02-14 11:27:00,
2013-02-14 05:28:00,32.2,12.7,28.20,West,260,0.0,0.0,44,0.00,,,0.00,VWS V14.00,2013-02-14 11:28:00,
2013-02-14 05:29:00,32.2,14.7,28.20,West,260,0.0,0.0,48,0.00,,,0.00,VWS V14.00,2013-02-14 11:29:00,
2013-02-14 05:33:00,32.2,17.0,28.20,West,260,0.0,0.0,53,0.00,,,0.00,VWS V14.00,2013-02-14 11:33:00,
2013-02-14 05:34:00,32.2,17.8,28.20,West,260,0.0,0.0,55,0.00,,,0.00,VWS V14.00,2013-02-14 11:34:00,
2013-02-14 05:35:00,32.2,18.3,28.20,West,260,0.0,0.0,56,0.00,,,0.00,VWS V14.00,2013-02-14 11:35:00,
2013-02-14 05:37:00,32.2,18.3,28.20,West,260,0.0,0.0,56,0.00,,,0.00,VWS V14.00,2013-02-14 11:37:00,
2013-02-14 05:38:00,32.2,18.3,28.20,West,260,0.0,0.0,56,0.00,,,0.00,VWS V14.00,2013-02-14 11:38:00,
2013-02-14 05:40:00,32.2,17.4,28.20,West,260,0.0,0.0,54,0.00,,,0.00,VWS V14.00,2013-02-14 11:40:00,
2013-02-14 05:42:00,32.2,17.0,28.20,West,260,0.0,0.0,53,0.00,,,0.00,VWS V14.00,2013-02-14 11:42:00,
2013-02-14 05:44:00,32.2,17.0,28.20,West,260,0.0,0.0,53,0.00,,,0.00,VWS V14.00,2013-02-14 11:44:00,
2013-02-14 05:46:00,32.2,17.8,28.20,West,260,0.0,0.0,55,0.00,,,0.00,VWS V14.00,2013-02-14 11:46:00,
2013-02-14 05:47:00,32.2,18.3,28.20,West,260,0.0,0.0,56,0.00,,,0.00,VWS V14.00,2013-02-14 11:47:00,
2013-02-14 05:49:00,32.2,17.4,28.20,West,260,0.0,0.0,54,0.00,,,0.00,VWS V14.00,2013-02-14 11:49:00,
2013-02-14 05:52:00,32.4,18.4,28.20,West,260,0.0,0.0,56,0.00,,,0.00,VWS V14.00,2013-02-14 11:52:00,
2013-02-14 05:53:00,32.4,18.8,28.20,West,260,0.0,0.0,57,0.00,,,0.00,VWS V14.00,2013-02-14 11:53:00,
2013-02-14 05:54:00,32.5,19.4,28.20,West,260,0.0,0.0,58,0.00,,,0.00,VWS V14.00,2013-02-14 11:54:00,
2013-02-14 05:57:00,32.5,20.2,28.20,West,260,0.0,0.0,60,0.00,,,0.00,VWS V14.00,2013-02-14 11:57:00,
2013-02-14 05:58:00,32.5,20.2,28.20,West,260,0.0,0.0,60,0.00,,,0.00,VWS V14.00,2013-02-14 11:58:00,
2013-02-14 06:00:00,32.5,20.2,28.20,West,260,0.0,0.0,60,0.00,,,0.00,VWS V14.00,2013-02-14 12:00:00,
2013-02-14 06:03:00,32.2,17.8,28.20,West,260,0.0,0.0,55,0.00,,,0.00,VWS V14.00,2013-02-14 12:03:00,
2013-02-14 06:04:00,32.2,17.4,28.20,West,260,0.0,0.0,54,0.00,,,0.00,VWS V14.00,2013-02-14 12:04:00,
2013-02-14 06:05:00,32.2,16.1,28.20,West,260,0.0,0.0,51,0.00,,,0.00,VWS V14.00,2013-02-14 12:05:00,
2013-02-14 06:08:00,32.2,14.7,28.20,West,260,0.0,0.0,48,0.00,,,0.00,VWS V14.00,2013-02-14 12:08:00,
2013-02-14 06:09:00,32.0,14.1,28.20,West,260,0.0,0.0,47,0.00,,,0.00,VWS V14.00,2013-02-14 12:09:00,
2013-02-14 06:10:00,32.0,14.1,28.20,West,260,0.0,0.0,47,0.00,,,0.00,VWS V14.00,2013-02-14 12:10:00,
2013-02-14 06:11:00,32.0,14.6,28.20,West,260,0.0,0.0,48,0.00,,,0.00,VWS V14.00,2013-02-14 12:11:00,
2013-02-14 06:13:00,32.0,15.5,28.20,West,260,0.0,0.0,50,0.00,,,0.00,VWS V14.00,2013-02-14 12:13:00,
2013-02-14 06:15:00,32.0,15.5,28.20,West,260,0.0,0.0,50,0.00,,,0.00,VWS V14.00,2013-02-14 12:15:00,
2013-02-14 06:17:00,32.0,15.9,28.20,West,260,0.0,0.0,51,0.00,,,0.00,VWS V14.00,2013-02-14 12:17:00,
2013-02-14 06:19:00,32.2,16.1,28.20,West,260,0.0,0.0,51,0.00,,,0.00,VWS V14.00,2013-02-14 12:19:00,
2013-02-14 06:20:00,32.2,15.6,28.20,West,260,0.0,0.0,50,0.00,,,0.00,VWS V14.00,2013-02-14 12:20:00,
2013-02-14 06:21:00,32.2,15.6,28.20,West,260,0.0,0.0,50,0.00,,,0.00,VWS V14.00,2013-02-14 12:21:00,
2013-02-14 06:22:00,32.2,15.6,28.20,West,260,0.0,0.0,50,0.00,,,0.00,VWS V14.00,2013-02-14 12:22:00,
2013-02-14 06:24:00,32.0,16.4,28.20,West,260,0.0,0.0,52,0.00,,,0.00,VWS V14.00,2013-02-14 12:24:00,
2013-02-14 06:26:00,32.2,17.0,28.20,West,260,0.0,0.0,53,0.00,,,0.00,VWS V14.00,2013-02-14 12:26:00,
2013-02-14 06:27:00,32.2,17.0,28.20,West,260,0.0,0.0,53,0.00,,,0.00,VWS V14.00,2013-02-14 12:27:00,
2013-02-14 06:29:00,31.8,16.2,28.20,West,260,0.0,0.0,52,0.00,,,0.00,VWS V14.00,2013-02-14 12:29:00,
2013-02-14 06:31:00,32.0,15.9,28.20,West,260,0.0,0.0,51,0.00,,,0.00,VWS V14.00,2013-02-14 12:31:00,
2013-02-14 06:33:00,32.2,16.5,28.20,West,260,0.0,0.0,52,0.00,,,0.00,VWS V14.00,2013-02-14 12:33:00,
2013-02-14 06:35:00,32.2,16.5,28.20,West,260,0.0,0.0,52,0.00,,,0.00,VWS V14.00,2013-02-14 12:35:00,
2013-02-14 06:36:00,32.2,16.5,28.20,West,260,0.0,0.0,52,0.00,,,0.00,VWS V14.00,2013-02-14 12:36:00,
2013-02-14 06:38:00,32.2,15.6,28.20,West,260,0.0,0.0,50,0.00,,,0.00,VWS V14.00,2013-02-14 12:38:00,
2013-02-14 06:39:00,32.2,15.6,28.20,West,260,0.0,0.0,50,0.00,,,0.00,VWS V14.00,2013-02-14 12:39:00,
2013-02-14 06:41:00,32.0,15.0,28.20,West,260,0.0,0.0,49,0.00,,,0.00,VWS V14.00,2013-02-14 12:41:00,
2013-02-14 06:42:00,31.8,15.3,28.20,West,260,0.0,0.0,50,0.00,,,0.00,VWS V14.00,2013-02-14 12:42:00,
2013-02-14 06:43:00,31.6,15.6,28.20,West,260,0.0,0.0,51,0.00,,,0.00,VWS V14.00,2013-02-14 12:43:00,
2013-02-14 06:44:00,31.6,15.6,28.20,West,260,0.0,0.0,51,0.00,,,0.00,VWS V14.00,2013-02-14 12:44:00,
2013-02-14 06:47:00,31.5,16.8,28.20,West,260,0.0,0.0,54,0.00,,,0.00,VWS V14.00,2013-02-14 12:47:00,
2013-02-14 06:48:00,31.5,16.8,28.20,West,260,0.0,0.0,54,0.00,,,0.00,VWS V14.00,2013-02-14 12:48:00,
2013-02-14 06:49:00,31.5,16.8,28.20,West,260,0.0,0.0,54,0.00,,,0.00,VWS V14.00,2013-02-14 12:49:00,
2013-02-14 06:52:00,31.5,16.3,28.20,West,260,0.0,0.0,53,0.00,,,0.00,VWS V14.00,2013-02-14 12:52:00,
2013-02-14 06:54:00,31.3,17.0,28.20,West,260,0.0,0.0,55,0.00,,,0.00,VWS V14.00,2013-02-14 12:54:00,
2013-02-14 06:55:00,31.3,17.8,28.20,West,260,0.0,0.0,57,0.00,,,0.00,VWS V14.00,2013-02-14 12:55:00,
2013-02-14 06:57:00,31.5,19.2,28.20,West,260,0.0,0.0,60,0.00,,,0.00,VWS V14.00,2013-02-14 12:57:00,
2013-02-14 06:59:00,31.5,19.6,28.20,West,260,0.0,0.0,61,0.00,,,0.00,VWS V14.00,2013-02-14 12:59:00,
2013-02-14 07:01:00,31.8,21.0,28.20,West,260,0.0,0.0,64,0.00,,,0.00,VWS V14.00,2013-02-14 13:01:00,
2013-02-14 07:02:00,31.8,21.0,28.20,West,260,0.0,0.0,64,0.00,,,0.00,VWS V14.00,2013-02-14 13:02:00,
2013-02-14 07:04:00,31.6,21.2,28.20,West,260,0.0,0.0,65,0.00,,,0.00,VWS V14.00,2013-02-14 13:04:00,
2013-02-14 07:07:00,31.6,21.2,28.20,West,260,0.0,0.0,65,0.00,,,0.00,VWS V14.00,2013-02-14 13:07:00,
2013-02-14 07:10:00,31.5,20.7,28.20,West,260,0.0,0.0,64,0.00,,,0.00,VWS V14.00,2013-02-14 13:10:00,
2013-02-14 07:12:00,31.3,20.5,28.20,West,260,0.0,0.0,64,0.00,,,0.00,VWS V14.00,2013-02-14 13:12:00,
2013-02-14 07:15:00,31.3,20.2,28.20,West,260,0.0,0.0,63,0.00,,,0.00,VWS V14.00,2013-02-14 13:15:00,
2013-02-14 07:16:00,31.5,20.0,28.20,West,260,0.0,0.0,62,0.00,,,0.00,VWS V14.00,2013-02-14 13:16:00,
2013-02-14 07:17:00,31.5,20.0,28.20,West,260,0.0,0.0,62,0.00,,,0.00,VWS V14.00,2013-02-14 13:17:00,
2013-02-14 07:19:00,31.5,19.6,28.20,West,260,0.0,0.0,61,0.00,,,0.00,VWS V14.00,2013-02-14 13:19:00,
2013-02-14 07:21:00,31.5,19.2,28.20,West,260,0.0,0.0,60,0.00,,,0.00,VWS V14.00,2013-02-14 13:21:00,
2013-02-14 07:23:00,31.1,18.5,28.20,West,260,0.0,0.0,59,0.00,,,0.00,VWS V14.00,2013-02-14 13:23:00,
2013-02-14 07:24:00,31.1,18.5,28.20,West,260,0.0,0.0,59,0.00,,,0.00,VWS V14.00,2013-02-14 13:24:00,
2013-02-14 07:26:00,31.1,18.9,28.20,West,260,0.0,0.0,60,0.00,,,0.00,VWS V14.00,2013-02-14 13:26:00,
2013-02-14 07:27:00,31.1,19.2,28.20,West,260,0.0,0.0,61,0.00,,,0.00,VWS V14.00,2013-02-14 13:27:00,
2013-02-14 07:29:00,31.1,19.6,28.20,West,260,0.0,0.0,62,0.00,,,0.00,VWS V14.00,2013-02-14 13:29:00,
2013-02-14 07:32:00,31.1,20.0,28.20,West,260,0.0,0.0,63,0.00,,,0.00,VWS V14.00,2013-02-14 13:32:00,
2013-02-14 07:33:00,31.5,20.3,28.20,West,260,0.0,0.0,63,0.00,,,0.00,VWS V14.00,2013-02-14 13:33:00,
2013-02-14 07:35:00,31.8,21.0,28.20,West,260,0.0,0.0,64,0.00,,,0.00,VWS V14.00,2013-02-14 13:35:00,
2013-02-14 07:36:00,32.0,21.2,28.20,West,260,0.0,0.0,64,0.00,,,0.00,VWS V14.00,2013-02-14 13:36:00,
2013-02-14 07:38:00,32.4,21.6,28.20,West,260,0.0,0.0,64,0.00,,,0.00,VWS V14.00,2013-02-14 13:38:00,
2013-02-14 07:40:00,32.5,21.7,28.20,West,260,0.0,0.0,64,0.00,,,0.00,VWS V14.00,2013-02-14 13:40:00,
2013-02-14 07:41:00,32.9,21.7,28.20,West,260,0.0,0.0,63,0.00,,,0.00,VWS V14.00,2013-02-14 13:41:00,
2013-02-14 07:42:00,32.9,21.7,28.20,West,260,0.0,0.0,63,0.00,,,0.00,VWS V14.00,2013-02-14 13:42:00,
2013-02-14 07:43:00,33.1,21.5,28.20,West,260,0.0,0.0,62,0.00,,,0.00,VWS V14.00,2013-02-14 13:43:00,
2013-02-14 07:45:00,33.4,21.5,28.20,West,260,0.0,0.0,61,0.00,,,0.00,VWS V14.00,2013-02-14 13:45:00,
2013-02-14 07:46:00,33.6,21.6,28.20,West,260,0.0,0.0,61,0.00,,,0.00,VWS V14.00,2013-02-14 13:46:00,
2013-02-14 07:47:00,34.0,21.6,28.20,West,260,0.0,0.0,60,0.00,,,0.00,VWS V14.00,2013-02-14 13:47:00,
2013-02-14 07:49:00,33.8,21.4,28.20,West,260,0.0,0.0,60,0.00,,,0.00,VWS V14.00,2013-02-14 13:49:00,
2013-02-14 07:50:00,33.8,21.4,28.20,West,260,0.0,0.0,60,0.00,,,0.00,VWS V14.00,2013-02-14 13:50:00,
2013-02-14 07:52:00,34.5,22.1,28.20,West,260,0.0,0.0,60,0.00,,,0.00,VWS V14.00,2013-02-14 13:52:00,
2013-02-14 07:54:00,34.5,22.1,28.20,West,260,0.0,0.0,60,0.00,,,0.00,VWS V14.00,2013-02-14 13:54:00,
2013-02-14 07:57:00,34.3,21.9,28.20,West,260,0.0,0.0,60,0.00,,,0.00,VWS V14.00,2013-02-14 13:57:00,
2013-02-14 07:58:00,34.3,22.3,28.20,West,260,0.0,0.0,61,0.00,,,0.00,VWS V14.00,2013-02-14 13:58:00,
2013-02-14 07:59:00,34.3,22.3,28.20,West,260,0.0,0.0,61,0.00,,,0.00,VWS V14.00,2013-02-14 13:59:00,
2013-02-14 08:00:00,34.3,22.3,28.20,West,260,0.0,0.0,61,0.00,,,0.00,VWS V14.00,2013-02-14 14:00:00,
2013-02-14 08:03:00,34.9,24.7,28.20,West,260,0.0,0.0,66,0.00,,,0.00,VWS V14.00,2013-02-14 14:03:00,
2013-02-14 08:04:00,35.4,26.3,28.20,West,260,0.0,0.0,69,0.00,,,0.00,VWS V14.00,2013-02-14 14:04:00,
2013-02-14 08:05:00,35.4,26.3,28.20,West,260,0.0,0.0,69,0.00,,,0.00,VWS V14.00,2013-02-14 14:05:00,
2013-02-14 08:08:00,35.8,27.3,28.20,West,261,0.0,0.0,71,0.00,,,0.00,VWS V14.00,2013-02-14 14:08:00,
2013-02-14 08:09:00,36.1,28.0,28.20,West,261,0.0,0.0,72,0.00,,,0.00,VWS V14.00,2013-02-14 14:09:00,
2013-02-14 08:10:00,36.1,28.0,28.20,West,261,0.0,0.0,72,0.00,,,0.00,VWS V14.00,2013-02-14 14:10:00,
2013-02-14 08:14:00,37.0,29.9,28.20,West,261,0.0,0.0,75,0.00,,,0.00,VWS V14.00,2013-02-14 14:14:00,
2013-02-14 08:15:00,37.2,30.4,28.20,West,261,0.0,0.0,76,0.00,,,0.00,VWS V14.00,2013-02-14 14:15:00,
2013-02-14 08:16:00,37.2,30.4,28.20,West,261,0.0,0.0,76,0.00,,,0.00,VWS V14.00,2013-02-14 14:16:00,
2013-02-14 08:17:00,37.4,30.5,28.20,West,261,0.0,0.0,76,0.00,,,0.00,VWS V14.00,2013-02-14 14:17:00,
2013-02-14 08:19:00,37.6,31.0,28.20,West,261,0.0,0.0,77,0.00,,,0.00,VWS V14.00,2013-02-14 14:19:00,
2013-02-14 08:21:00,37.9,31.4,28.20,West,261,0.0,0.0,77,0.00,,,0.00,VWS V14.00,2013-02-14 14:21:00,
2013-02-14 08:22:00,37.9,31.4,28.20,West,261,0.0,0.0,77,0.00,,,0.00,VWS V14.00,2013-02-14 14:22:00,
2013-02-14 08:25:00,38.1,31.6,28.20,West,261,0.0,0.0,77,0.00,,,0.00,VWS V14.00,2013-02-14 14:25:00,
2013-02-14 08:26:00,38.1,31.6,28.20,West,261,0.0,0.0,77,0.00,,,0.00,VWS V14.00,2013-02-14 14:26:00,
2013-02-14 08:27:00,38.3,31.7,28.20,West,261,0.0,0.0,77,0.00,,,0.00,VWS V14.00,2013-02-14 14:27:00,
2013-02-14 08:31:00,38.5,31.9,28.20,West,261,0.0,0.0,77,0.00,,,0.00,VWS V14.00,2013-02-14 14:31:00,
2013-02-14 08:32:00,38.7,32.1,28.20,West,261,0.0,0.0,77,0.00,,,0.00,VWS V14.00,2013-02-14 14:32:00,
2013-02-14 08:33:00,38.7,32.1,28.20,West,261,0.0,0.0,77,0.00,,,0.00,VWS V14.00,2013-02-14 14:33:00,
2013-02-14 08:36:00,39.0,32.4,28.20,West,261,0.0,0.0,77,0.00,,,0.00,VWS V14.00,2013-02-14 14:36:00,
2013-02-14 08:37:00,39.2,32.6,28.20,West,261,0.0,0.0,77,0.00,,,0.00,VWS V14.00,2013-02-14 14:37:00,
2013-02-14 08:38:00,39.4,32.8,28.20,West,261,0.0,0.0,77,0.00,,,0.00,VWS V14.00,2013-02-14 14:38:00,
2013-02-14 08:39:00,39.4,32.8,28.20,West,261,0.0,0.0,77,0.00,,,0.00,VWS V14.00,2013-02-14 14:39:00,
2013-02-14 08:42:00,39.9,33.6,28.20,West,261,0.0,0.0,78,0.00,,,0.00,VWS V14.00,2013-02-14 14:42:00,
2013-02-14 08:44:00,40.1,33.8,28.20,West,261,0.0,0.0,78,0.00,,,0.00,VWS V14.00,2013-02-14 14:44:00,
2013-02-14 08:45:00,40.3,34.0,28.20,West,261,0.0,0.0,78,0.00,,,0.00,VWS V14.00,2013-02-14 14:45:00,
2013-02-14 08:47:00,40.5,34.2,28.20,West,261,0.0,0.0,78,0.00,,,0.00,VWS V14.00,2013-02-14 14:47:00,
2013-02-14 08:48:00,40.6,34.3,28.20,West,261,0.0,0.0,78,0.00,,,0.00,VWS V14.00,2013-02-14 14:48:00,
2013-02-14 08:49:00,40.8,34.5,28.20,West,261,0.0,0.0,78,0.00,,,0.00,VWS V14.00,2013-02-14 14:49:00,
2013-02-14 08:50:00,40.8,34.5,28.20,West,261,0.0,0.0,78,0.00,,,0.00,VWS V14.00,2013-02-14 14:50:00,
2013-02-14 08:52:00,41.0,34.3,28.20,West,261,0.0,0.0,77,0.00,,,0.00,VWS V14.00,2013-02-14 14:52:00,
2013-02-14 08:54:00,41.0,34.0,28.20,West,261,0.0,0.0,76,0.00,,,0.00,VWS V14.00,2013-02-14 14:54:00,
2013-02-14 08:55:00,41.2,33.9,28.20,West,261,0.0,0.0,75,0.00,,,0.00,VWS V14.00,2013-02-14 14:55:00,
2013-02-14 08:58:00,42.4,34.4,28.20,West,261,0.0,0.0,73,0.00,,,0.00,VWS V14.00,2013-02-14 14:58:00,
2013-02-14 09:00:00,42.4,34.4,28.20,West,261,0.0,0.0,73,0.00,,,0.00,VWS V14.00,2013-02-14 15:00:00,
2013-02-14 09:01:00,42.8,33.7,28.20,West,261,0.0,0.0,70,0.00,,,0.00,VWS V14.00,2013-02-14 15:01:00,
2013-02-14 09:05:00,43.0,27.5,28.20,West,261,0.0,0.0,54,0.00,,,0.00,VWS V14.00,2013-02-14 15:05:00,
2013-02-14 09:06:00,43.0,27.5,28.20,West,261,0.0,0.0,54,0.00,,,0.00,VWS V14.00,2013-02-14 15:06:00,
2013-02-14 09:08:00,43.3,22.4,28.20,West,261,0.0,0.0,43,0.00,,,0.00,VWS V14.00,2013-02-14 15:08:00,
2013-02-14 09:11:00,43.9,21.7,28.20,West,261,0.0,0.0,41,0.00,,,0.00,VWS V14.00,2013-02-14 15:11:00,
2013-02-14 09:13:00,47.5,26.1,28.20,West,261,0.0,0.0,43,0.00,,,0.00,VWS V14.00,2013-02-14 15:13:00,
2013-02-14 09:17:00,51.3,27.2,28.20,West,261,0.0,0.0,39,0.00,,,0.00,VWS V14.00,2013-02-14 15:17:00,
2013-02-14 09:18:00,54.5,24.5,28.20,West,261,0.0,0.0,31,0.00,,,0.00,VWS V14.00,2013-02-14 15:18:00,
2013-02-14 09:22:00,59.2,18.2,28.20,WSW,258,0.0,0.0,20,0.00,,,0.00,VWS V14.00,2013-02-14 15:22:00,
2013-02-14 09:23:00,59.2,18.2,28.20,WSW,258,0.0,0.0,20,0.00,,,0.00,VWS V14.00,2013-02-14 15:23:00,
2013-02-14 09:27:00,60.1,18.9,28.20,SSW,210,0.0,0.0,20,0.00,,,0.00,VWS V14.00,2013-02-14 15:27:00,
2013-02-14 09:28:00,61.3,18.8,28.20,SSW,210,0.0,0.0,19,0.00,,,0.00,VWS V14.00,2013-02-14 15:28:00,
2013-02-14 09:32:00,64.4,20.0,28.20,West,267,0.0,0.0,18,0.00,,,0.00,VWS V14.00,2013-02-14 15:32:00,
2013-02-14 09:33:00,64.4,20.0,28.20,West,266,0.0,0.0,18,0.00,,,0.00,VWS V14.00,2013-02-14 15:33:00,
2013-02-14 09:34:00,64.4,20.0,28.20,West,266,0.0,0.0,18,0.00,,,0.00,VWS V14.00,2013-02-14 15:34:00,
2013-02-14 09:38:00,65.8,21.2,28.20,SSW,192,0.0,4.0,18,0.00,,,0.00,VWS V14.00,2013-02-14 15:38:00,
2013-02-14 09:39:00,63.0,20.1,28.20,SSW,210,2.7,4.0,19,0.00,,,0.00,VWS V14.00,2013-02-14 15:39:00,
2013-02-14 09:40:00,61.3,18.8,28.20,SSW,200,3.6,4.0,19,0.00,,,0.00,VWS V14.00,2013-02-14 15:40:00,
2013-02-14 09:44:00,65.5,20.9,28.20,SSW,213,2.2,2.7,18,0.00,,,0.00,VWS V14.00,2013-02-14 15:44:00,
2013-02-14 09:45:00,63.9,20.8,28.20,SSW,206,5.4,5.4,19,0.00,,,0.00,VWS V14.00,2013-02-14 15:45:00,
2013-02-14 09:49:00,57.9,17.1,28.20,SSW,204,3.1,8.1,20,0.00,,,0.00,VWS V14.00,2013-02-14 15:49:00,
2013-02-14 09:50:00,57.9,17.1,28.20,South,176,5.8,8.1,20,0.00,,,0.00,VWS V14.00,2013-02-14 15:50:00,
2013-02-14 09:51:00,58.8,17.9,28.20,SSW,200,2.7,8.3,20,0.00,,,0.00,VWS V14.00,2013-02-14 15:51:00,
2013-02-14 09:54:00,62.8,19.9,28.20,SSW,210,0.0,8.3,19,0.00,,,0.00,VWS V14.00,2013-02-14 15:54:00,
2013-02-14 09:55:00,62.8,19.9,28.20,SSW,210,0.0,8.3,19,0.00,,,0.00,VWS V14.00,2013-02-14 15:55:00,
2013-02-14 09:57:00,63.9,20.8,28.20,SSW,200,3.1,8.3,19,0.00,,,0.00,VWS V14.00,2013-02-14 15:57:00,
2013-02-14 10:00:00,63.9,20.8,28.20,SSE,162,3.1,8.3,19,0.00,,,0.00,VWS V14.00,2013-02-14 16:00:00,
2013-02-14 10:01:00,67.8,22.8,28.20,South,175,3.6,8.3,18,0.00,,,0.00,VWS V14.00,2013-02-14 16:01:00,
2013-02-14 10:03:00,63.1,20.2,28.20,SSW,204,2.7,8.3,19,0.00,,,0.00,VWS V14.00,2013-02-14 16:03:00,
2013-02-14 10:05:00,65.3,20.7,28.20,SSW,193,0.0,8.3,18,0.00,,,0.00,VWS V14.00,2013-02-14 16:05:00,
2013-02-14 10:06:00,64.8,20.3,28.20,SSW,200,4.0,8.3,18,0.00,,,0.00,VWS V14.00,2013-02-14 16:06:00,
2013-02-14 10:08:00,66.0,21.3,28.20,SSW,206,7.6,8.3,18,0.00,,,0.00,VWS V14.00,2013-02-14 16:08:00,
2013-02-14 10:09:00,62.4,19.6,28.20,South,170,5.4,8.3,19,0.00,,,0.00,VWS V14.00,2013-02-14 16:09:00,
2013-02-14 10:10:00,60.1,18.9,28.20,SSW,208,5.8,8.3,20,0.00,,,0.00,VWS V14.00,2013-02-14 16:10:00,
2013-02-14 10:11:00,60.1,18.9,28.20,SSW,210,4.9,8.3,20,0.00,,,0.00,VWS V14.00,2013-02-14 16:11:00,
2013-02-14 10:13:00,64.4,20.0,28.20,SSW,208,3.1,8.3,18,0.00,,,0.00,VWS V14.00,2013-02-14 16:13:00,
2013-02-14 10:15:00,63.9,20.8,28.20,SSW,203,6.3,6.3,19,0.00,,,0.00,VWS V14.00,2013-02-14 16:15:00,
2013-02-14 10:16:00,62.4,19.6,28.20,SSW,207,4.9,6.3,19,0.00,,,0.00,VWS V14.00,2013-02-14 16:16:00,
2013-02-14 10:18:00,66.7,21.9,28.23,SW,216,0.0,6.3,18,0.00,,,0.00,VWS V14.00,2013-02-14 16:18:00,
2013-02-14 10:20:00,64.6,20.1,28.23,South,182,4.0,6.3,18,0.00,,,0.00,VWS V14.00,2013-02-14 16:20:00,
2013-02-14 10:21:00,63.7,20.7,28.23,South,182,5.4,6.3,19,0.00,,,0.00,VWS V14.00,2013-02-14 16:21:00,
2013-02-14 10:22:00,64.6,20.1,28.23,SSE,166,5.8,6.3,18,0.00,,,0.00,VWS V14.00,2013-02-14 16:22:00,
2013-02-14 10:24:00,64.0,21.0,28.23,South,176,2.2,7.2,19,0.00,,,0.00,VWS V14.00,2013-02-14 16:24:00,
2013-02-14 10:26:00,64.9,20.4,28.23,SSW,205,3.1,7.2,18,0.00,,,0.00,VWS V14.00,2013-02-14 16:26:00,
2013-02-14 10:29:00,65.5,20.9,28.23,South,173,4.0,5.8,18,0.00,,,0.00,VWS V14.00,2013-02-14 16:29:00,
2013-02-14 10:31:00,65.7,21.0,28.23,South,183,4.0,5.8,18,0.00,,,0.00,VWS V14.00,2013-02-14 16:31:00,
2013-02-14 10:32:00,67.8,22.8,28.23,South,182,3.1,5.8,18,0.00,,,0.00,VWS V14.00,2013-02-14 16:32:00,
2013-02-14 10:34:00,68.2,23.1,28.23,SSW,192,4.9,5.8,18,0.00,,,0.00,VWS V14.00,2013-02-14 16:34:00,
2013-02-14 10:35:00,67.8,22.8,28.23,SSW,205,5.8,5.8,18,0.00,,,0.00,VWS V14.00,2013-02-14 16:35:00,
2013-02-14 10:36:00,66.7,21.9,28.23,SSW,201,0.0,5.8,18,0.00,,,0.00,VWS V14.00,2013-02-14 16:36:00,
2013-02-14 10:38:00,69.8,23.1,28.23,SSW,201,0.0,5.8,17,0.00,,,0.00,VWS V14.00,2013-02-14 16:38:00,
2013-02-14 10:39:00,67.1,22.2,28.23,SSE,167,3.6,7.6,18,0.00,,,0.00,VWS V14.00,2013-02-14 16:39:00,
2013-02-14 10:41:00,65.7,21.0,28.23,South,179,8.1,8.1,18,0.00,,,0.00,VWS V14.00,2013-02-14 16:41:00,
2013-02-14 10:44:00,67.6,22.6,28.23,SSW,212,3.1,3.1,18,0.00,,,0.00,VWS V14.00,2013-02-14 16:44:00,
2013-02-14 10:45:00,68.4,23.2,28.23,SSW,203,4.9,5.4,18,0.00,,,0.00,VWS V14.00,2013-02-14 16:45:00,
2013-02-14 10:46:00,66.6,21.8,28.23,South,177,6.3,6.3,18,0.00,,,0.00,VWS V14.00,2013-02-14 16:46:00,
2013-02-14 10:50:00,66.2,21.5,28.23,SSW,204,7.6,8.1,18,0.00,,,0.00,VWS V14.00,2013-02-14 16:50:00,
2013-02-14 10:51:00,66.4,21.6,28.23,South,173,6.3,8.1,18,0.00,,,0.00,VWS V14.00,2013-02-14 16:51:00,
2013-02-14 10:52:00,67.5,22.5,28.23,SSW,205,5.4,8.1,18,0.00,,,0.00,VWS V14.00,2013-02-14 16:52:00,
2013-02-14 10:55:00,66.9,22.1,28.23,SSW,203,4.0,8.1,18,0.00,,,0.00,VWS V14.00,2013-02-14 16:55:00,
2013-02-14 10:56:00,68.4,23.2,28.23,SSW,202,2.7,8.1,18,0.00,,,0.00,VWS V14.00,2013-02-14 16:56:00,
2013-02-14 10:57:00,69.1,23.8,28.23,SSW,200,2.7,8.1,18,0.00,,,0.00,VWS V14.00,2013-02-14 16:57:00,
2013-02-14 11:01:00,68.2,23.1,28.23,South,191,0.0,8.1,18,0.00,,,0.00,VWS V14.00,2013-02-14 17:01:00,
2013-02-14 11:04:00,68.2,23.1,28.23,SW,221,2.7,8.1,18,0.00,,,0.00,VWS V14.00,2013-02-14 17:04:00,
2013-02-14 11:06:00,69.3,24.0,28.23,South,187,4.0,8.1,18,0.00,,,0.00,VWS V14.00,2013-02-14 17:06:00,
2013-02-14 11:07:00,70.7,23.8,28.23,SSW,196,6.3,8.1,17,0.00,,,0.00,VWS V14.00,2013-02-14 17:07:00,
2013-02-14 11:11:00,70.2,23.4,28.23,SSW,210,2.7,8.1,17,0.00,,,0.00,VWS V14.00,2013-02-14 17:11:00,
2013-02-14 11:12:00,68.4,23.2,28.23,SSW,203,6.3,8.1,18,0.00,,,0.00,VWS V14.00,2013-02-14 17:12:00,
2013-02-14 11:13:00,67.1,22.2,28.23,SSW,200,8.1,8.1,18,0.00,,,0.00,VWS V14.00,2013-02-14 17:13:00,
2013-02-14 11:17:00,68.4,23.2,28.23,WSW,244,4.9,8.1,18,0.00,,,0.00,VWS V14.00,2013-02-14 17:17:00,
2013-02-14 11:18:00,71.1,24.1,28.23,SSW,201,5.4,8.1,17,0.00,,,0.00,VWS V14.00,2013-02-14 17:18:00,
2013-02-14 11:22:00,71.2,24.2,28.23,South,190,4.9,8.1,17,0.00,,,0.00,VWS V14.00,2013-02-14 17:22:00,
2013-02-14 11:23:00,71.2,24.2,28.23,SSW,209,3.6,8.1,17,0.00,,,0.00,VWS V14.00,2013-02-14 17:23:00,
2013-02-14 11:24:00,67.8,22.8,28.23,South,185,6.3,8.1,18,0.00,,,0.00,VWS V14.00,2013-02-14 17:24:00,
2013-02-14 11:27:00,71.1,24.1,28.23,SW,232,0.0,8.1,17,0.00,,,0.00,VWS V14.00,2013-02-14 17:27:00,
2013-02-14 11:28:00,71.8,24.7,28.23,SW,232,0.0,8.1,17,0.00,,,0.00,VWS V14.00,2013-02-14 17:28:00,
2013-02-14 11:29:00,74.1,25.1,28.23,South,184,2.7,4.0,16,0.00,,,0.00,VWS V14.00,2013-02-14 17:29:00,
2013-02-14 11:32:00,76.1,26.7,28.23,SSW,203,5.4,5.4,16,0.00,,,0.00,VWS V14.00,2013-02-14 17:32:00,
2013-02-14 11:33:00,73.4,24.5,28.23,SW,216,5.4,6.7,16,0.00,,,0.00,VWS V14.00,2013-02-14 17:33:00,
2013-02-14 11:34:00,69.6,24.3,28.23,SSW,197,7.6,7.6,18,0.00,,,0.00,VWS V14.00,2013-02-14 17:34:00,
2013-02-14 11:35:00,69.6,24.3,28.23,South,172,3.6,7.6,18,0.00,,,0.00,VWS V14.00,2013-02-14 17:35:00,
2013-02-14 11:38:00,74.7,25.5,28.23,SSW,192,2.7,7.6,16,0.00,,,0.00,VWS V14.00,2013-02-14 17:38:00,
2013-02-14 11:39:00,72.7,25.4,28.23,SSW,202,8.1,8.1,17,0.00,,,0.00,VWS V14.00,2013-02-14 17:39:00,
2013-02-14 11:40:00,71.4,24.4,28.23,South,190,5.8,8.1,17,0.00,,,0.00,VWS V14.00,2013-02-14 17:40:00,
2013-02-14 11:43:00,71.4,24.4,28.23,SSW,201,4.0,4.0,17,0.00,,,0.00,VWS V14.00,2013-02-14 17:43:00,
2013-02-14 11:44:00,72.7,25.4,28.23,SE,146,5.4,5.4,17,0.00,,,0.00,VWS V14.00,2013-02-14 17:44:00,
2013-02-14 11:45:00,71.8,24.7,28.23,South,190,5.4,8.1,17,0.00,,,0.00,VWS V14.00,2013-02-14 17:45:00,
2013-02-14 11:46:00,71.1,24.1,28.23,SSW,205,6.3,8.1,17,0.00,,,0.00,VWS V14.00,2013-02-14 17:46:00,
2013-02-14 11:49:00,72.3,25.1,28.26,SSW,203,4.0,8.7,17,0.00,,,0.00,VWS V14.00,2013-02-14 17:49:00,
2013-02-14 11:51:00,73.9,25.0,28.26,South,171,5.4,8.7,16,0.00,,,0.00,VWS V14.00,2013-02-14 17:51:00,
2013-02-14 11:52:00,72.9,25.5,28.26,SSW,212,5.8,8.7,17,0.00,,,0.00,VWS V14.00,2013-02-14 17:52:00,
2013-02-14 11:54:00,74.5,25.4,28.26,South,170,5.8,8.7,16,0.00,,,0.00,VWS V14.00,2013-02-14 17:54:00,
2013-02-14 11:55:00,71.8,24.7,28.26,South,182,5.4,8.7,17,0.00,,,0.00,VWS V14.00,2013-02-14 17:55:00,
2013-02-14 11:56:00,71.8,24.7,28.26,SSW,200,8.7,8.7,17,0.00,,,0.00,VWS V14.00,2013-02-14 17:56:00,
2013-02-14 11:58:00,73.8,24.8,28.26,SW,232,3.1,8.7,16,0.00,,,0.00,VWS V14.00,2013-02-14 17:58:00,
2013-02-14 11:59:00,73.8,24.8,28.26,SW,232,3.1,8.7,16,0.00,,,0.00,VWS V14.00,2013-02-14 17:59:00,
2013-02-14 12:00:00,73.8,24.8,28.26,SW,232,3.1,8.7,16,0.00,,,0.00,VWS V14.00,2013-02-14 18:00:00,
2013-02-14 12:02:00,72.7,25.4,28.26,SSW,212,2.2,8.7,17,0.00,,,0.00,VWS V14.00,2013-02-14 18:02:00,
2013-02-14 12:03:00,74.1,25.1,28.26,South,175,5.8,8.7,16,0.00,,,0.00,VWS V14.00,2013-02-14 18:03:00,
2013-02-14 12:04:00,72.0,24.8,28.26,South,170,5.4,8.7,17,0.00,,,0.00,VWS V14.00,2013-02-14 18:04:00,
2013-02-14 12:06:00,75.7,26.4,28.26,South,190,5.8,8.7,16,0.00,,,0.00,VWS V14.00,2013-02-14 18:06:00,
2013-02-14 12:07:00,73.2,25.8,28.26,SSW,213,5.4,8.7,17,0.00,,,0.00,VWS V14.00,2013-02-14 18:07:00,
2013-02-14 12:10:00,74.7,25.5,28.26,SW,219,6.3,8.7,16,0.00,,,0.00,VWS V14.00,2013-02-14 18:10:00,
2013-02-14 12:11:00,76.1,26.7,28.26,SE,133,0.0,8.7,16,0.00,,,0.00,VWS V14.00,2013-02-14 18:11:00,
2013-02-14 12:13:00,78.6,28.7,28.26,South,183,3.1,3.1,16,0.00,,,0.00,VWS V14.00,2013-02-14 18:13:00,
2013-02-14 12:15:00,77.9,28.1,28.26,South,185,0.0,4.9,16,0.00,,,0.00,VWS V14.00,2013-02-14 18:15:00,
2013-02-14 12:16:00,72.7,25.4,28.26,South,184,8.1,8.3,17,0.00,,,0.00,VWS V14.00,2013-02-14 18:16:00,
2013-02-14 12:17:00,75.4,26.1,28.26,SSE,163,3.6,10.5,16,0.00,,,0.00,VWS V14.00,2013-02-14 18:17:00,
2013-02-14 12:18:00,75.4,26.1,28.26,South,186,5.8,10.5,16,0.00,,,0.00,VWS V14.00,2013-02-14 18:18:00,
2013-02-14 12:20:00,75.4,26.1,28.26,South,172,3.1,10.5,16,0.00,,,0.00,VWS V14.00,2013-02-14 18:20:00,
2013-02-14 12:22:00,72.1,25.0,28.26,South,179,6.3,10.5,17,0.00,,,0.00,VWS V14.00,2013-02-14 18:22:00,
2013-02-14 12:23:00,73.0,25.7,28.26,SSW,202,0.0,10.5,17,0.00,,,0.00,VWS V14.00,2013-02-14 18:23:00,
2013-02-14 12:24:00,74.1,25.1,28.26,SSW,202,0.0,10.5,16,0.00,,,0.00,VWS V14.00,2013-02-14 18:24:00,
2013-02-14 12:26:00,76.1,26.7,28.26,SSW,203,0.0,10.5,16,0.00,,,0.00,VWS V14.00,2013-02-14 18:26:00,
2013-02-14 12:28:00,76.5,27.0,28.26,SSW,210,0.0,10.5,16,0.00,,,0.00,VWS V14.00,2013-02-14 18:28:00,
2013-02-14 12:29:00,78.1,28.3,28.26,SSW,211,0.0,0.0,16,0.00,,,0.00,VWS V14.00,2013-02-14 18:29:00,
2013-02-14 12:31:00,79.0,27.4,28.26,SSW,201,0.0,2.7,15,0.00,,,0.00,VWS V14.00,2013-02-14 18:31:00,
2013-02-14 12:33:00,73.2,25.8,28.26,SSE,160,5.4,8.1,17,0.00,,,0.00,VWS V14.00,2013-02-14 18:33:00,
2013-02-14 12:35:00,74.7,25.5,28.26,SSW,194,4.0,8.1,16,0.00,,,0.00,VWS V14.00,2013-02-14 18:35:00,
2013-02-14 12:37:00,71.8,24.7,28.26,South,169,5.4,8.1,17,0.00,,,0.00,VWS V14.00,2013-02-14 18:37:00,
2013-02-14 12:38:00,70.0,23.2,28.26,South,173,8.1,8.3,17,0.00,,,0.00,VWS V14.00,2013-02-14 18:38:00,
2013-02-14 12:40:00,69.1,23.8,28.26,South,186,6.7,8.3,18,0.00,,,0.00,VWS V14.00,2013-02-14 18:40:00,
2013-02-14 12:42:00,70.9,23.9,28.26,SSW,192,4.0,8.3,17,0.00,,,0.00,VWS V14.00,2013-02-14 18:42:00,
2013-02-14 12:43:00,71.6,24.5,28.26,SSW,204,3.1,4.0,17,0.00,,,0.00,VWS V14.00,2013-02-14 18:43:00,
2013-02-14 12:45:00,70.9,23.9,28.26,South,189,5.8,5.8,17,0.00,,,0.00,VWS V14.00,2013-02-14 18:45:00,
2013-02-14 12:47:00,70.7,23.8,28.23,SSW,202,8.1,8.3,17,0.00,,,0.00,VWS V14.00,2013-02-14 18:47:00,
2013-02-14 12:50:00,72.3,25.1,28.23,South,190,0.0,8.3,17,0.00,,,0.00,VWS V14.00,2013-02-14 18:50:00,
2013-02-14 12:52:00,72.3,25.1,28.23,South,179,5.8,8.3,17,0.00,,,0.00,VWS V14.00,2013-02-14 18:52:00,
2013-02-14 12:55:00,73.4,24.5,28.23,SSW,193,0.0,8.3,16,0.00,,,0.00,VWS V14.00,2013-02-14 18:55:00,
2013-02-14 12:56:00,73.4,24.5,28.23,SSW,195,4.0,8.3,16,0.00,,,0.00,VWS V14.00,2013-02-14 18:56:00,
2013-02-14 12:58:00,74.8,25.7,28.23,SSW,213,2.7,8.3,16,0.00,,,0.00,VWS V14.00,2013-02-14 18:58:00,
2013-02-14 13:00:00,74.8,25.7,28.23,SSW,213,2.7,8.3,16,0.00,,,0.00,VWS V14.00,2013-02-14 19:00:00,
2013-02-14 13:01:00,74.8,25.7,28.23,South,184,3.6,8.3,16,0.00,,,0.00,VWS V14.00,2013-02-14 19:01:00,
2013-02-14 13:03:00,75.0,25.8,28.23,SSE,168,0.0,8.3,16,0.00,,,0.00,VWS V14.00,2013-02-14 19:03:00,
2013-02-14 13:06:00,75.2,26.0,28.23,SSE,167,3.1,8.3,16,0.00,,,0.00,VWS V14.00,2013-02-14 19:06:00,
2013-02-14 13:07:00,75.9,26.5,28.23,SSW,198,3.1,8.3,16,0.00,,,0.00,VWS V14.00,2013-02-14 19:07:00,
2013-02-14 13:08:00,76.3,26.8,28.23,South,169,4.9,8.3,16,0.00,,,0.00,VWS V14.00,2013-02-14 19:08:00,
2013-02-14 13:11:00,75.9,26.5,28.23,SSW,192,3.1,8.3,16,0.00,,,0.00,VWS V14.00,2013-02-14 19:11:00,
2013-02-14 13:12:00,76.8,27.3,28.23,South,185,6.3,8.3,16,0.00,,,0.00,VWS V14.00,2013-02-14 19:12:00,
2013-02-14 13:13:00,76.1,26.7,28.23,SSW,196,5.4,6.3,16,0.00,,,0.00,VWS V14.00,2013-02-14 19:13:00,
2013-02-14 13:16:00,77.9,28.1,28.23,SW,232,0.0,8.3,16,0.00,,,0.00,VWS V14.00,2013-02-14 19:16:00,
2013-02-14 13:17:00,78.8,27.3,28.23,SSW,194,3.6,8.3,15,0.00,,,0.00,VWS V14.00,2013-02-14 19:17:00,
2013-02-14 13:19:00,79.9,28.1,28.23,South,186,2.7,8.3,15,0.00,,,0.00,VWS V14.00,2013-02-14 19:19:00,
2013-02-14 13:23:00,77.5,27.9,28.23,South,170,5.8,11.0,16,0.00,,,0.00,VWS V14.00,2013-02-14 19:23:00,
2013-02-14 13:24:00,78.4,28.6,28.23,South,191,6.3,11.0,16,0.00,,,0.00,VWS V14.00,2013-02-14 19:24:00,
2013-02-14 13:28:00,78.1,28.3,28.23,SSW,206,5.4,11.0,16,0.00,,,0.00,VWS V14.00,2013-02-14 19:28:00,
2013-02-14 13:30:00,81.7,29.6,28.23,WNW,293,3.1,5.8,15,0.00,,,0.00,VWS V14.00,2013-02-14 19:30:00,
2013-02-14 13:35:00,77.0,27.4,28.23,SSW,204,10.1,12.3,16,0.00,,,0.00,VWS V14.00,2013-02-14 19:35:00,
2013-02-14 13:36:00,79.2,27.6,28.23,South,189,7.6,12.3,15,0.00,,,0.00,VWS V14.00,2013-02-14 19:36:00,
2013-02-14 13:40:00,75.2,26.0,28.23,SSW,205,5.4,12.3,16,0.00,,,0.00,VWS V14.00,2013-02-14 19:40:00,
2013-02-14 13:42:00,76.3,26.8,28.23,SSW,200,8.1,12.3,16,0.00,,,0.00,VWS V14.00,2013-02-14 19:42:00,
2013-02-14 13:45:00,75.2,26.0,28.23,SSW,210,10.1,11.0,16,0.00,,,0.00,VWS V14.00,2013-02-14 19:45:00,
2013-02-14 13:46:00,75.2,26.0,28.23,South,187,11.0,11.0,16,0.00,,,0.00,VWS V14.00,2013-02-14 19:46:00,
2013-02-14 13:47:00,74.3,25.2,28.23,SSW,206,5.8,11.0,16,0.00,,,0.00,VWS V14.00,2013-02-14 19:47:00,
2013-02-14 13:48:00,74.3,25.2,28.23,SSW,198,8.1,11.0,16,0.00,,,0.00,VWS V14.00,2013-02-14 19:48:00,
2013-02-14 13:50:00,74.8,25.7,28.23,South,173,0.0,11.0,16,0.00,,,0.00,VWS V14.00,2013-02-14 19:50:00,
2013-02-14 13:51:00,75.2,26.0,28.23,SSE,164,7.6,11.0,16,0.00,,,0.00,VWS V14.00,2013-02-14 19:51:00,
2013-02-14 13:53:00,76.1,26.7,28.23,SSW,213,3.6,11.0,16,0.00,,,0.00,VWS V14.00,2013-02-14 19:53:00,
2013-02-14 13:56:00,73.4,24.5,28.23,South,187,8.1,11.0,16,0.00,,,0.00,VWS V14.00,2013-02-14 19:56:00,
2013-02-14 13:58:00,73.6,24.7,28.23,South,186,8.1,11.0,16,0.00,,,0.00,VWS V14.00,2013-02-14 19:58:00,
2013-02-14 13:59:00,73.6,24.7,28.23,South,186,8.1,11.0,16,0.00,,,0.00,VWS V14.00,2013-02-14 19:59:00,
2013-02-14 14:01:00,73.6,24.7,28.23,South,186,8.1,11.0,16,0.00,,,0.00,VWS V14.00,2013-02-14 20:01:00,
2013-02-14 14:02:00,74.8,25.7,28.23,South,188,0.0,11.0,16,0.00,,,0.00,VWS V14.00,2013-02-14 20:02:00,
2013-02-14 14:05:00,75.2,26.0,28.23,SW,225,3.1,11.0,16,0.00,,,0.00,VWS V14.00,2013-02-14 20:05:00,
2013-02-14 14:06:00,74.8,25.7,28.23,SSW,210,5.8,11.0,16,0.00,,,0.00,VWS V14.00,2013-02-14 20:06:00,
2013-02-14 14:07:00,74.8,25.7,28.23,South,186,5.8,11.0,16,0.00,,,0.00,VWS V14.00,2013-02-14 20:07:00,
2013-02-14 14:11:00,71.6,24.5,28.23,South,178,10.1,13.6,17,0.00,,,0.00,VWS V14.00,2013-02-14 20:11:00,
2013-02-14 14:12:00,72.0,24.8,28.23,SSW,202,8.3,13.6,17,0.00,,,0.00,VWS V14.00,2013-02-14 20:12:00,
2013-02-14 14:13:00,72.5,25.2,28.23,SSW,204,5.4,13.6,17,0.00,,,0.00,VWS V14.00,2013-02-14 20:13:00,
2013-02-14 14:14:00,73.2,25.8,28.23,South,191,8.7,10.1,17,0.00,,,0.00,VWS V14.00,2013-02-14 20:14:00,
2013-02-14 14:16:00,73.4,24.5,28.23,South,181,7.6,10.1,16,0.00,,,0.00,VWS V14.00,2013-02-14 20:16:00,
2013-02-14 14:18:00,72.5,25.2,28.23,South,179,6.3,11.0,17,0.00,,,0.00,VWS V14.00,2013-02-14 20:18:00,
2013-02-14 14:20:00,72.3,25.1,28.23,South,186,10.1,12.8,17,0.00,,,0.00,VWS V14.00,2013-02-14 20:20:00,
2013-02-14 14:21:00,73.4,24.5,28.23,SSW,211,10.1,12.8,16,0.00,,,0.00,VWS V14.00,2013-02-14 20:21:00,
2013-02-14 14:23:00,73.9,25.0,28.23,South,176,8.1,12.8,16,0.00,,,0.00,VWS V14.00,2013-02-14 20:23:00,
2013-02-14 14:24:00,73.9,25.0,28.23,SSW,208,5.4,12.8,16,0.00,,,0.00,VWS V14.00,2013-02-14 20:24:00,
2013-02-14 14:26:00,74.3,25.2,28.23,South,187,8.7,12.8,16,0.00,,,0.00,VWS V14.00,2013-02-14 20:26:00,
2013-02-14 14:29:00,74.5,25.4,28.23,SSW,207,5.4,7.6,16,0.00,,,0.00,VWS V14.00,2013-02-14 20:29:00,
2013-02-14 14:30:00,75.7,26.4,28.23,SSW,204,8.7,8.7,16,0.00,,,0.00,VWS V14.00,2013-02-14 20:30:00,
2013-02-14 14:32:00,77.7,28.0,28.23,SW,219,3.1,8.7,16,0.00,,,0.00,VWS V14.00,2013-02-14 20:32:00,
2013-02-14 14:34:00,76.8,27.3,28.20,SSE,167,6.3,10.1,16,0.00,,,0.00,VWS V14.00,2013-02-14 20:34:00,
2013-02-14 14:35:00,76.5,27.0,28.20,South,184,5.8,10.1,16,0.00,,,0.00,VWS V14.00,2013-02-14 20:35:00,
2013-02-14 14:37:00,76.1,26.7,28.20,SSW,200,5.8,12.3,16,0.00,,,0.00,VWS V14.00,2013-02-14 20:37:00,
2013-02-14 14:39:00,74.3,25.2,28.20,SSW,202,10.5,13.2,16,0.00,,,0.00,VWS V14.00,2013-02-14 20:39:00,
2013-02-14 14:40:00,74.3,25.2,28.20,SW,219,8.7,13.2,16,0.00,,,0.00,VWS V14.00,2013-02-14 20:40:00,
2013-02-14 14:42:00,76.6,27.1,28.20,SSW,208,4.0,13.2,16,0.00,,,0.00,VWS V14.00,2013-02-14 20:42:00,
2013-02-14 14:45:00,74.7,25.5,28.20,South,179,6.3,10.5,16,0.00,,,0.00,VWS V14.00,2013-02-14 20:45:00,
2013-02-14 14:47:00,74.5,25.4,28.20,SSW,200,10.5,11.0,16,0.00,,,0.00,VWS V14.00,2013-02-14 20:47:00,
2013-02-14 14:48:00,73.2,25.8,28.20,South,183,8.1,11.9,17,0.00,,,0.00,VWS V14.00,2013-02-14 20:48:00,
2013-02-14 14:49:00,74.5,25.4,28.20,SW,218,5.8,11.9,16,0.00,,,0.00,VWS V14.00,2013-02-14 20:49:00,
2013-02-14 14:50:00,75.2,26.0,28.20,SW,217,8.1,11.9,16,0.00,,,0.00,VWS V14.00,2013-02-14 20:50:00,
2013-02-14 14:52:00,75.4,26.1,28.20,South,183,3.1,13.2,16,0.00,,,0.00,VWS V14.00,2013-02-14 20:52:00,
2013-02-14 14:54:00,76.1,26.7,28.20,SE,146,2.2,13.2,16,0.00,,,0.00,VWS V14.00,2013-02-14 20:54:00,
2013-02-14 14:55:00,76.5,27.0,28.20,South,178,5.4,13.2,16,0.00,,,0.00,VWS V14.00,2013-02-14 20:55:00,
2013-02-14 14:56:00,76.6,27.1,28.20,SSW,202,8.7,13.2,16,0.00,,,0.00,VWS V14.00,2013-02-14 20:56:00,
2013-02-14 14:58:00,76.5,27.0,28.20,South,175,6.7,13.2,16,0.00,,,0.00,VWS V14.00,2013-02-14 20:58:00,
2013-02-14 14:59:00,76.5,27.0,28.20,SSW,199,7.6,13.2,16,0.00,,,0.00,VWS V14.00,2013-02-14 20:59:00,
2013-02-14 15:00:00,76.5,27.0,28.20,SSW,199,7.6,13.2,16,0.00,,,0.00,VWS V14.00,2013-02-14 21:00:00,
2013-02-14 15:01:00,74.8,25.7,28.20,SSE,158,11.0,13.6,16,0.00,,,0.00,VWS V14.00,2013-02-14 21:01:00,
2013-02-14 15:04:00,74.1,25.1,28.23,SSE,167,6.3,15.0,16,0.00,,,0.00,VWS V14.00,2013-02-14 21:04:00,
2013-02-14 15:05:00,75.0,25.8,28.23,South,181,10.1,15.0,16,0.00,,,0.00,VWS V14.00,2013-02-14 21:05:00,
2013-02-14 15:09:00,78.6,28.7,28.23,SSW,207,6.3,15.0,16,0.00,,,0.00,VWS V14.00,2013-02-14 21:09:00,
2013-02-14 15:10:00,77.7,28.0,28.23,SSW,197,4.0,15.0,16,0.00,,,0.00,VWS V14.00,2013-02-14 21:10:00,
2013-02-14 15:11:00,77.7,28.0,28.23,SSW,195,5.8,15.0,16,0.00,,,0.00,VWS V14.00,2013-02-14 21:11:00,
2013-02-14 15:14:00,77.5,27.9,28.23,South,183,8.1,10.5,16,0.00,,,0.00,VWS V14.00,2013-02-14 21:14:00,
2013-02-14 15:16:00,77.7,28.0,28.23,SSW,200,8.1,10.5,16,0.00,,,0.00,VWS V14.00,2013-02-14 21:16:00,
2013-02-14 15:21:00,79.3,27.7,28.23,South,185,6.3,10.5,15,0.00,,,0.00,VWS V14.00,2013-02-14 21:21:00,
2013-02-14 15:22:00,78.6,28.7,28.23,SSE,150,9.2,10.5,16,0.00,,,0.00,VWS V14.00,2013-02-14 21:22:00,
2013-02-14 15:26:00,78.4,28.6,28.23,SW,221,8.1,12.8,16,0.00,,,0.00,VWS V14.00,2013-02-14 21:26:00,
2013-02-14 15:27:00,75.7,26.4,28.23,South,182,8.7,12.8,16,0.00,,,0.00,VWS V14.00,2013-02-14 21:27:00,
2013-02-14 15:31:00,77.0,27.4,28.23,SSW,213,9.6,12.3,16,0.00,,,0.00,VWS V14.00,2013-02-14 21:31:00,
2013-02-14 15:32:00,77.2,27.6,28.20,SSW,203,10.5,12.3,16,0.00,,,0.00,VWS V14.00,2013-02-14 21:32:00,
2013-02-14 15:33:00,77.5,27.9,28.20,SSW,204,7.6,12.3,16,0.00,,,0.00,VWS V14.00,2013-02-14 21:33:00,
2013-02-14 15:37:00,77.4,27.7,28.20,SSE,165,11.0,12.3,16,0.00,,,0.00,VWS V14.00,2013-02-14 21:37:00,
2013-02-14 15:38:00,76.3,26.8,28.20,South,169,8.3,12.8,16,0.00,,,0.00,VWS V14.00,2013-02-14 21:38:00,
2013-02-14 15:39:00,75.2,26.0,28.20,South,176,11.0,12.8,16,0.00,,,0.00,VWS V14.00,2013-02-14 21:39:00,
2013-02-14 15:43:00,77.4,27.7,28.20,WSW,247,7.2,12.8,16,0.00,,,0.00,VWS V14.00,2013-02-14 21:43:00,
2013-02-14 15:44:00,77.7,28.0,28.20,SSW,209,4.9,7.2,16,0.00,,,0.00,VWS V14.00,2013-02-14 21:44:00,
2013-02-14 15:48:00,77.2,27.6,28.20,South,187,8.1,11.0,16,0.00,,,0.00,VWS V14.00,2013-02-14 21:48:00,
2013-02-14 15:49:00,76.8,27.3,28.20,SSW,200,8.7,11.0,16,0.00,,,0.00,VWS V14.00,2013-02-14 21:49:00,
2013-02-14 15:50:00,76.8,27.3,28.20,SSW,205,8.7,12.8,16,0.00,,,0.00,VWS V14.00,2013-02-14 21:50:00,
2013-02-14 15:54:00,77.9,28.1,28.20,SSW,198,5.4,12.8,16,0.00,,,0.00,VWS V14.00,2013-02-14 21:54:00,
2013-02-14 15:55:00,78.4,28.6,28.20,SSW,202,7.2,12.8,16,0.00,,,0.00,VWS V14.00,2013-02-14 21:55:00,
2013-02-14 15:59:00,77.5,27.9,28.20,SSW,195,3.1,12.8,16,0.00,,,0.00,VWS V14.00,2013-02-14 21:59:00,
2013-02-14 16:00:00,77.5,27.9,28.20,SSW,195,3.1,12.8,16,0.00,,,0.00,VWS V14.00,2013-02-14 22:00:00,
2013-02-14 16:01:00,78.8,27.3,28.20,South,182,4.9,12.8,15,0.00,,,0.00,VWS V14.00,2013-02-14 22:01:00,
2013-02-14 16:05:00,79.5,27.9,28.23,South,178,10.5,12.8,15,0.00,,,0.00,VWS V14.00,2013-02-14 22:05:00,
2013-02-14 16:07:00,75.9,26.5,28.23,South,180,11.0,12.8,16,0.00,,,0.00,VWS V14.00,2013-02-14 22:07:00,
2013-02-14 16:08:00,77.2,27.6,28.23,South,191,6.3,12.8,16,0.00,,,0.00,VWS V14.00,2013-02-14 22:08:00,
2013-02-14 16:10:00,75.6,26.3,28.23,SSW,196,5.4,12.8,16,0.00,,,0.00,VWS V14.00,2013-02-14 22:10:00,
2013-02-14 16:11:00,75.4,26.1,28.23,SSW,198,10.5,12.8,16,0.00,,,0.00,VWS V14.00,2013-02-14 22:11:00,
2013-02-14 16:12:00,74.5,25.4,28.23,South,172,11.0,12.8,16,0.00,,,0.00,VWS V14.00,2013-02-14 22:12:00,
2013-02-14 16:13:00,75.2,26.0,28.23,South,182,8.3,12.8,16,0.00,,,0.00,VWS V14.00,2013-02-14 22:13:00,
2013-02-14 16:16:00,73.9,25.0,28.23,SSE,168,8.7,12.8,16,0.00,,,0.00,VWS V14.00,2013-02-14 22:16:00,
2013-02-14 16:17:00,74.1,25.1,28.23,SE,137,7.6,12.8,16,0.00,,,0.00,VWS V14.00,2013-02-14 22:17:00,
2013-02-14 16:19:00,75.9,26.5,28.23,SSW,193,3.6,12.8,16,0.00,,,0.00,VWS V14.00,2013-02-14 22:19:00,
2013-02-14 16:22:00,77.4,27.7,28.23,SSW,192,7.6,12.8,16,0.00,,,0.00,VWS V14.00,2013-02-14 22:22:00,
2013-02-14 16:24:00,76.3,26.8,28.23,South,177,8.7,12.8,16,0.00,,,0.00,VWS V14.00,2013-02-14 22:24:00,
2013-02-14 16:25:00,76.3,26.8,28.23,South,178,8.3,12.8,16,0.00,,,0.00,VWS V14.00,2013-02-14 22:25:00,
2013-02-14 16:27:00,77.2,27.6,28.23,South,180,8.3,12.8,16,0.00,,,0.00,VWS V14.00,2013-02-14 22:27:00,
2013-02-14 16:28:00,76.1,26.7,28.23,South,183,11.0,12.8,16,0.00,,,0.00,VWS V14.00,2013-02-14 22:28:00,
2013-02-14 16:29:00,74.7,25.5,28.23,SW,223,11.0,11.0,16,0.00,,,0.00,VWS V14.00,2013-02-14 22:29:00,
2013-02-14 16:31:00,74.5,25.4,28.23,SSW,208,10.1,11.4,16,0.00,,,0.00,VWS V14.00,2013-02-14 22:31:00,
2013-02-14 16:32:00,75.9,26.5,28.23,SSW,204,5.8,11.4,16,0.00,,,0.00,VWS V14.00,2013-02-14 22:32:00,
2013-02-14 16:35:00,76.5,27.0,28.23,South,171,7.6,11.4,16,0.00,,,0.00,VWS V14.00,2013-02-14 22:35:00,
2013-02-14 16:36:00,76.3,26.8,28.23,SSW,200,9.2,11.4,16,0.00,,,0.00,VWS V14.00,2013-02-14 22:36:00,
2013-02-14 16:39:00,75.2,26.0,28.23,South,181,7.6,11.4,16,0.00,,,0.00,VWS V14.00,2013-02-14 22:39:00,
2013-02-14 16:41:00,73.4,24.5,28.23,SSW,194,8.7,11.4,16,0.00,,,0.00,VWS V14.00,2013-02-14 22:41:00,
2013-02-14 16:42:00,73.4,24.5,28.23,SSW,204,5.4,11.4,16,0.00,,,0.00,VWS V14.00,2013-02-14 22:42:00,
2013-02-14 16:43:00,72.5,25.2,28.23,South,177,8.7,8.7,17,0.00,,,0.00,VWS V14.00,2013-02-14 22:43:00,
2013-02-14 16:48:00,71.1,24.1,28.20,SSW,206,5.4,8.7,17,0.00,,,0.00,VWS V14.00,2013-02-14 22:48:00,
2013-02-14 16:49:00,70.9,23.9,28.20,SSW,206,8.7,10.1,17,0.00,,,0.00,VWS V14.00,2013-02-14 22:49:00,
2013-02-14 16:53:00,70.7,23.8,28.20,South,185,5.8,11.0,17,0.00,,,0.00,VWS V14.00,2013-02-14 22:53:00,
2013-02-14 16:54:00,70.5,23.6,28.20,South,188,6.3,11.0,17,0.00,,,0.00,VWS V14.00,2013-02-14 22:54:00,
2013-02-14 16:56:00,70.3,23.5,28.20,South,190,8.7,11.0,17,0.00,,,0.00,VWS V14.00,2013-02-14 22:56:00,
2013-02-14 16:58:00,70.3,23.5,28.20,South,172,7.6,11.0,17,0.00,,,0.00,VWS V14.00,2013-02-14 22:58:00,
2013-02-14 16:59:00,70.3,23.5,28.20,South,172,7.6,11.0,17,0.00,,,0.00,VWS V14.00,2013-02-14 22:59:00,
2013-02-14 17:02:00,70.5,23.6,28.20,SSW,194,8.1,11.0,17,0.00,,,0.00,VWS V14.00,2013-02-14 23:02:00,
2013-02-14 17:03:00,70.3,23.5,28.20,South,181,8.3,11.0,17,0.00,,,0.00,VWS V14.00,2013-02-14 23:03:00,
2013-02-14 17:04:00,70.3,23.5,28.20,South,186,10.1,11.0,17,0.00,,,0.00,VWS V14.00,2013-02-14 23:04:00,
2013-02-14 17:08:00,70.2,23.4,28.20,SSE,149,13.2,13.2,17,0.00,,,0.00,VWS V14.00,2013-02-14 23:08:00,
2013-02-14 17:09:00,70.2,23.4,28.20,South,183,6.3,13.2,17,0.00,,,0.00,VWS V14.00,2013-02-14 23:09:00,
2013-02-14 17:10:00,70.0,23.2,28.20,SSW,195,6.3,13.2,17,0.00,,,0.00,VWS V14.00,2013-02-14 23:10:00,
2013-02-14 17:13:00,69.8,23.1,28.20,SSW,212,4.0,6.3,17,0.00,,,0.00,VWS V14.00,2013-02-14 23:13:00,
2013-02-14 17:14:00,70.0,23.2,28.20,SSW,199,5.8,8.1,17,0.00,,,0.00,VWS V14.00,2013-02-14 23:14:00,
2013-02-14 17:16:00,69.8,23.1,28.20,South,172,5.4,8.1,17,0.00,,,0.00,VWS V14.00,2013-02-14 23:16:00,
2013-02-14 17:18:00,69.8,23.1,28.20,SSW,193,7.6,8.7,17,0.00,,,0.00,VWS V14.00,2013-02-14 23:18:00,
2013-02-14 17:19:00,69.8,23.1,28.20,SSW,203,5.4,8.7,17,0.00,,,0.00,VWS V14.00,2013-02-14 23:19:00,
2013-02-14 17:22:00,69.8,23.1,28.20,SSE,168,5.8,11.0,17,0.00,,,0.00,VWS V14.00,2013-02-14 23:22:00,
2013-02-14 17:25:00,69.6,24.3,28.20,SSW,210,8.3,11.0,18,0.00,,,0.00,VWS V14.00,2013-02-14 23:25:00,
2013-02-14 17:26:00,69.4,24.1,28.20,SSW,197,4.0,11.0,18,0.00,,,0.00,VWS V14.00,2013-02-14 23:26:00,
2013-02-14 17:27:00,69.4,24.1,28.20,South,177,5.8,11.0,18,0.00,,,0.00,VWS V14.00,2013-02-14 23:27:00,
2013-02-14 17:30:00,69.4,24.1,28.20,South,182,8.1,8.3,18,0.00,,,0.00,VWS V14.00,2013-02-14 23:30:00,
2013-02-14 17:31:00,69.4,24.1,28.20,SSW,197,7.6,8.3,18,0.00,,,0.00,VWS V14.00,2013-02-14 23:31:00,
2013-02-14 17:32:00,69.4,24.1,28.20,South,176,5.4,8.3,18,0.00,,,0.00,VWS V14.00,2013-02-14 23:32:00,
2013-02-14 17:36:00,69.4,24.1,28.20,South,182,8.3,8.7,18,0.00,,,0.00,VWS V14.00,2013-02-14 23:36:00,
2013-02-14 17:38:00,69.1,23.8,28.20,SSW,200,8.3,9.6,18,0.00,,,0.00,VWS V14.00,2013-02-14 23:38:00,
2013-02-14 17:41:00,69.3,24.0,28.20,South,184,11.0,11.4,18,0.00,,,0.00,VWS V14.00,2013-02-14 23:41:00,
2013-02-14 17:42:00,69.3,24.0,28.20,South,184,11.0,11.4,18,0.00,,,0.00,VWS V14.00,2013-02-14 23:42:00,
2013-02-14 17:43:00,69.1,23.8,28.20,SSW,207,5.4,11.4,18,0.00,,,0.00,VWS V14.00,2013-02-14 23:43:00,
2013-02-14 17:44:00,68.9,23.7,28.20,South,170,8.7,8.7,18,0.00,,,0.00,VWS V14.00,2013-02-14 23:44:00,
2013-02-14 17:46:00,68.7,23.5,28.20,South,170,6.3,8.7,18,0.00,,,0.00,VWS V14.00,2013-02-14 23:46:00,
2013-02-14 17:47:00,68.7,23.5,28.20,South,172,6.3,8.7,18,0.00,,,0.00,VWS V14.00,2013-02-14 23:47:00,
2013-02-14 17:48:00,68.7,23.5,28.20,South,181,6.3,8.7,18,0.00,,,0.00,VWS V14.00,2013-02-14 23:48:00,
2013-02-14 17:50:00,68.5,23.4,28.20,SSW,206,5.8,8.7,18,0.00,,,0.00,VWS V14.00,2013-02-14 23:50:00,
2013-02-14 17:52:00,68.7,23.5,28.20,South,178,5.8,8.7,18,0.00,,,0.00,VWS V14.00,2013-02-14 23:52:00,
2013-02-14 17:53:00,68.5,23.4,28.20,South,173,8.1,8.7,18,0.00,,,0.00,VWS V14.00,2013-02-14 23:53:00,
2013-02-14 17:55:00,68.2,23.1,28.20,South,172,6.7,8.7,18,0.00,,,0.00,VWS V14.00,2013-02-14 23:55:00,
2013-02-14 17:57:00,68.2,23.1,28.20,South,182,4.9,8.7,18,0.00,,,0.00,VWS V14.00,2013-02-14 23:57:00,
2013-02-14 17:58:00,68.2,23.1,28.20,South,178,4.9,8.7,18,0.00,,,0.00,VWS V14.00,2013-02-14 23:58:00,
2013-02-14 17:59:00,68.2,23.1,28.20,South,178,4.9,8.7,18,0.00,,,0.00,VWS V14.00,2013-02-14 23:59:00,
2013-02-14 18:00:00,68.2,23.1,28.20,South,178,4.9,8.7,18,0.00,,,0.00,VWS V14.00,2013-02-15 00:00:00,
2013-02-14 18:03:00,67.6,22.6,28.20,South,183,4.9,8.7,18,0.00,,,0.00,VWS V14.00,2013-02-15 00:03:00,
2013-02-14 18:04:00,67.6,22.6,28.20,South,178,3.6,8.7,18,0.00,,,0.00,VWS V14.00,2013-02-15 00:04:00,
2013-02-14 18:05:00,67.1,22.2,28.20,South,177,3.1,8.7,18,0.00,,,0.00,VWS V14.00,2013-02-15 00:05:00,
2013-02-14 18:08:00,66.9,22.1,28.20,South,178,5.4,8.7,18,0.00,,,0.00,VWS V14.00,2013-02-15 00:08:00,
2013-02-14 18:09:00,67.1,22.2,28.20,South,181,4.0,8.7,18,0.00,,,0.00,VWS V14.00,2013-02-15 00:09:00,
2013-02-14 18:11:00,66.9,22.1,28.20,South,180,4.9,8.7,18,0.00,,,0.00,VWS V14.00,2013-02-15 00:11:00,
2013-02-14 18:14:00,66.4,21.6,28.20,South,179,3.6,5.8,18,0.00,,,0.00,VWS V14.00,2013-02-15 00:14:00,
2013-02-14 18:15:00,66.2,21.5,28.20,South,179,4.0,5.8,18,0.00,,,0.00,VWS V14.00,2013-02-15 00:15:00,
2013-02-14 18:16:00,65.8,21.2,28.20,South,179,3.6,5.8,18,0.00,,,0.00,VWS V14.00,2013-02-15 00:16:00,
2013-02-14 18:19:00,65.5,20.9,28.20,South,180,4.0,5.8,18,0.00,,,0.00,VWS V14.00,2013-02-15 00:19:00,
2013-02-14 18:20:00,65.1,20.6,28.20,South,180,3.1,5.8,18,0.00,,,0.00,VWS V14.00,2013-02-15 00:20:00,
2013-02-14 18:23:00,64.6,20.1,28.20,South,180,2.7,5.8,18,0.00,,,0.00,VWS V14.00,2013-02-15 00:23:00,
2013-02-14 18:25:00,64.4,20.0,28.20,South,180,3.6,5.8,18,0.00,,,0.00,VWS V14.00,2013-02-15 00:25:00,
2013-02-14 18:26:00,63.9,20.8,28.20,South,180,2.2,5.8,19,0.00,,,0.00,VWS V14.00,2013-02-15 00:26:00,
2013-02-14 18:28:00,63.5,20.5,28.20,South,180,2.2,5.8,19,0.00,,,0.00,VWS V14.00,2013-02-15 00:28:00,
2013-02-14 18:31:00,62.6,19.8,28.20,South,180,0.0,2.2,19,0.00,,,0.00,VWS V14.00,2013-02-15 00:31:00,
2013-02-14 18:34:00,61.9,19.2,28.20,South,180,0.0,2.2,19,0.00,,,0.00,VWS V14.00,2013-02-15 00:34:00,
2013-02-14 18:36:00,61.7,19.0,28.20,South,180,0.0,2.2,19,0.00,,,0.00,VWS V14.00,2013-02-15 00:36:00,
2013-02-14 18:37:00,61.5,18.9,28.20,South,180,2.7,3.6,19,0.00,,,0.00,VWS V14.00,2013-02-15 00:37:00,
2013-02-14 18:39:00,61.5,18.9,28.20,South,179,2.7,4.0,19,0.00,,,0.00,VWS V14.00,2013-02-15 00:39:00,
2013-02-14 18:41:00,61.7,19.0,28.20,South,179,2.7,4.9,19,0.00,,,0.00,VWS V14.00,2013-02-15 00:41:00,
2013-02-14 18:43:00,61.5,18.9,28.20,South,179,2.7,4.9,19,0.00,,,0.00,VWS V14.00,2013-02-15 00:43:00,
2013-02-14 18:44:00,61.7,19.0,28.20,South,179,4.0,4.9,19,0.00,,,0.00,VWS V14.00,2013-02-15 00:44:00,
2013-02-14 18:46:00,61.5,18.9,28.20,South,179,2.7,4.9,19,0.00,,,0.00,VWS V14.00,2013-02-15 00:46:00,
2013-02-14 18:47:00,61.5,18.9,28.20,South,179,3.1,4.9,19,0.00,,,0.00,VWS V14.00,2013-02-15 00:47:00,
2013-02-14 18:48:00,61.2,18.6,28.23,South,179,3.1,4.9,19,0.00,,,0.00,VWS V14.00,2013-02-15 00:48:00,
2013-02-14 18:49:00,61.0,18.5,28.23,South,179,2.7,4.9,19,0.00,,,0.00,VWS V14.00,2013-02-15 00:49:00,
2013-02-14 18:52:00,60.6,19.4,28.23,South,179,2.7,4.9,20,0.00,,,0.00,VWS V14.00,2013-02-15 00:52:00,
2013-02-14 18:53:00,60.4,19.2,28.23,South,179,2.7,4.9,20,0.00,,,0.00,VWS V14.00,2013-02-15 00:53:00,
2013-02-14 18:56:00,60.1,17.7,28.23,South,179,2.2,4.9,19,0.00,,,0.00,VWS V14.00,2013-02-15 00:56:00,
2013-02-14 18:57:00,59.9,18.8,28.23,South,179,0.0,4.9,20,0.00,,,0.00,VWS V14.00,2013-02-15 00:57:00,
2013-02-14 18:59:00,59.9,18.8,28.23,South,179,0.0,4.9,20,0.00,,,0.00,VWS V14.00,2013-02-15 00:59:00,
2013-02-14 19:01:00,59.7,17.4,28.23,South,179,2.2,4.9,19,0.00,,,0.00,VWS V14.00,2013-02-15 01:01:00,
2013-02-14 19:02:00,60.1,17.7,28.23,South,179,3.1,4.9,19,0.00,,,0.00,VWS V14.00,2013-02-15 01:02:00,
2013-02-14 19:03:00,59.9,17.6,28.23,South,179,2.7,4.9,19,0.00,,,0.00,VWS V14.00,2013-02-15 01:03:00,
2013-02-14 19:04:00,59.7,17.4,28.23,South,179,2.2,4.9,19,0.00,,,0.00,VWS V14.00,2013-02-15 01:04:00,
2013-02-14 19:07:00,59.9,17.6,28.23,South,179,2.7,4.9,19,0.00,,,0.00,VWS V14.00,2013-02-15 01:07:00,
2013-02-14 19:08:00,59.7,17.4,28.23,South,179,2.7,4.9,19,0.00,,,0.00,VWS V14.00,2013-02-15 01:08:00,
2013-02-14 19:09:00,59.4,17.1,28.23,South,179,0.0,4.9,19,0.00,,,0.00,VWS V14.00,2013-02-15 01:09:00,
2013-02-14 19:12:00,59.2,17.0,28.23,South,179,0.0,4.9,19,0.00,,,0.00,VWS V14.00,2013-02-15 01:12:00,
2013-02-14 19:13:00,58.8,17.9,28.23,South,179,0.0,0.0,20,0.00,,,0.00,VWS V14.00,2013-02-15 01:13:00,
2013-02-14 19:14:00,59.2,17.0,28.23,South,179,3.6,3.6,19,0.00,,,0.00,VWS V14.00,2013-02-15 01:14:00,
2013-02-14 19:16:00,58.8,17.9,28.23,South,179,0.0,3.6,20,0.00,,,0.00,VWS V14.00,2013-02-15 01:16:00,
2013-02-14 19:17:00,58.6,17.7,28.23,South,179,0.0,3.6,20,0.00,,,0.00,VWS V14.00,2013-02-15 01:17:00,
2013-02-14 19:19:00,58.8,17.9,28.23,South,179,3.1,3.6,20,0.00,,,0.00,VWS V14.00,2013-02-15 01:19:00,
2013-02-14 19:22:00,58.5,17.6,28.23,South,179,0.0,3.6,20,0.00,,,0.00,VWS V14.00,2013-02-15 01:22:00,
2013-02-14 19:23:00,58.3,17.4,28.23,South,179,0.0,3.6,20,0.00,,,0.00,VWS V14.00,2013-02-15 01:23:00,
2013-02-14 19:24:00,58.3,17.4,28.23,South,179,0.0,3.6,20,0.00,,,0.00,VWS V14.00,2013-02-15 01:24:00,
2013-02-14 19:28:00,58.8,17.9,28.23,South,172,3.1,3.6,20,0.00,,,0.00,VWS V14.00,2013-02-15 01:28:00,
2013-02-14 19:29:00,59.2,17.0,28.23,South,173,3.6,3.6,19,0.00,,,0.00,VWS V14.00,2013-02-15 01:29:00,
2013-02-14 19:33:00,60.1,17.7,28.20,South,175,3.6,6.3,19,0.00,,,0.00,VWS V14.00,2013-02-15 01:33:00,
2013-02-14 19:34:00,59.9,17.6,28.20,South,179,3.1,6.3,19,0.00,,,0.00,VWS V14.00,2013-02-15 01:34:00,
2013-02-14 19:36:00,60.1,18.9,28.20,South,180,4.0,6.3,20,0.00,,,0.00,VWS V14.00,2013-02-15 01:36:00,
2013-02-14 19:39:00,60.6,18.2,28.20,SSE,154,5.8,6.3,19,0.00,,,0.00,VWS V14.00,2013-02-15 01:39:00,
2013-02-14 19:40:00,60.6,19.4,28.20,South,172,4.0,6.3,20,0.00,,,0.00,VWS V14.00,2013-02-15 01:40:00,
2013-02-14 19:42:00,61.0,18.5,28.20,South,190,5.4,6.3,19,0.00,,,0.00,VWS V14.00,2013-02-15 01:42:00,
2013-02-14 19:45:00,60.6,19.4,28.20,South,174,3.1,5.4,20,0.00,,,0.00,VWS V14.00,2013-02-15 01:45:00,
2013-02-14 19:47:00,60.4,19.2,28.20,South,170,4.9,5.4,20,0.00,,,0.00,VWS V14.00,2013-02-15 01:47:00,
2013-02-14 19:50:00,60.3,19.0,28.20,South,178,2.7,5.8,20,0.00,,,0.00,VWS V14.00,2013-02-15 01:50:00,
2013-02-14 19:52:00,60.8,18.3,28.20,South,175,5.8,5.8,19,0.00,,,0.00,VWS V14.00,2013-02-15 01:52:00,
2013-02-14 19:53:00,60.6,18.2,28.20,SSW,197,5.8,5.8,19,0.00,,,0.00,VWS V14.00,2013-02-15 01:53:00,
2013-02-14 19:55:00,60.4,19.2,28.20,South,172,5.4,5.8,20,0.00,,,0.00,VWS V14.00,2013-02-15 01:55:00,
2013-02-14 19:56:00,61.0,18.5,28.20,SSE,159,5.4,7.2,19,0.00,,,0.00,VWS V14.00,2013-02-15 01:56:00,
2013-02-14 19:58:00,60.4,18.0,28.20,South,179,4.9,7.2,19,0.00,,,0.00,VWS V14.00,2013-02-15 01:58:00,
2013-02-14 20:00:00,60.4,18.0,28.20,South,179,4.9,7.2,19,0.00,,,0.00,VWS V14.00,2013-02-15 02:00:00,
2013-02-14 20:01:00,60.6,19.4,28.20,South,178,4.9,7.2,20,0.00,,,0.00,VWS V14.00,2013-02-15 02:01:00,
2013-02-14 20:03:00,60.6,18.2,28.20,South,184,4.0,8.7,19,0.00,,,0.00,VWS V14.00,2013-02-15 02:03:00,
2013-02-14 20:05:00,60.6,19.4,28.20,South,173,3.1,8.7,20,0.00,,,0.00,VWS V14.00,2013-02-15 02:05:00,
2013-02-14 20:06:00,60.6,19.4,28.20,SSE,163,5.4,8.7,20,0.00,,,0.00,VWS V14.00,2013-02-15 02:06:00,
2013-02-14 20:09:00,60.4,19.2,28.20,South,173,5.8,8.7,20,0.00,,,0.00,VWS V14.00,2013-02-15 02:09:00,
2013-02-14 20:10:00,60.4,19.2,28.20,South,180,4.0,8.7,20,0.00,,,0.00,VWS V14.00,2013-02-15 02:10:00,
2013-02-14 20:11:00,60.4,19.2,28.20,South,174,6.3,8.7,20,0.00,,,0.00,VWS V14.00,2013-02-15 02:11:00,
2013-02-14 20:12:00,60.6,19.4,28.20,SSE,161,7.6,8.7,20,0.00,,,0.00,VWS V14.00,2013-02-15 02:12:00,
2013-02-14 20:14:00,60.3,19.0,28.20,SSE,165,5.8,6.3,20,0.00,,,0.00,VWS V14.00,2013-02-15 02:14:00,
2013-02-14 20:15:00,60.3,17.9,28.20,South,183,6.3,8.1,19,0.00,,,0.00,VWS V14.00,2013-02-15 02:15:00,
2013-02-14 20:16:00,60.3,17.9,28.20,South,174,4.0,8.1,19,0.00,,,0.00,VWS V14.00,2013-02-15 02:16:00,
2013-02-14 20:19:00,60.1,17.7,28.20,SSE,168,4.5,8.1,19,0.00,,,0.00,VWS V14.00,2013-02-15 02:19:00,
2013-02-14 20:20:00,60.1,17.7,28.20,South,188,4.9,8.1,19,0.00,,,0.00,VWS V14.00,2013-02-15 02:20:00,
2013-02-14 20:21:00,60.1,17.7,28.20,SSE,152,7.6,8.1,19,0.00,,,0.00,VWS V14.00,2013-02-15 02:21:00,
2013-02-14 20:22:00,59.9,17.6,28.20,SSE,168,6.3,8.1,19,0.00,,,0.00,VWS V14.00,2013-02-15 02:22:00,
2013-02-14 20:25:00,59.9,17.6,28.20,South,174,5.4,8.1,19,0.00,,,0.00,VWS V14.00,2013-02-15 02:25:00,
2013-02-14 20:26:00,59.9,17.6,28.20,SSE,166,5.8,8.1,19,0.00,,,0.00,VWS V14.00,2013-02-15 02:26:00,
2013-02-14 20:28:00,59.4,17.1,28.20,South,172,4.0,8.1,19,0.00,,,0.00,VWS V14.00,2013-02-15 02:28:00,
2013-02-14 20:30:00,59.7,17.4,28.20,SSE,152,8.1,8.7,19,0.00,,,0.00,VWS V14.00,2013-02-15 02:30:00,
2013-02-14 20:32:00,59.7,17.4,28.20,SSE,154,5.8,10.1,19,0.00,,,0.00,VWS V14.00,2013-02-15 02:32:00,
2013-02-14 20:33:00,59.5,17.3,28.20,SSE,152,3.1,10.1,19,0.00,,,0.00,VWS V14.00,2013-02-15 02:33:00,
2013-02-14 20:35:00,59.7,17.4,28.20,South,191,6.3,10.1,19,0.00,,,0.00,VWS V14.00,2013-02-15 02:35:00,
2013-02-14 20:36:00,59.7,17.4,28.20,SSW,193,5.4,10.1,19,0.00,,,0.00,VWS V14.00,2013-02-15 02:36:00,
2013-02-14 20:37:00,59.5,17.3,28.20,South,185,5.8,10.1,19,0.00,,,0.00,VWS V14.00,2013-02-15 02:37:00,
2013-02-14 20:39:00,59.4,17.1,28.20,South,181,6.3,10.1,19,0.00,,,0.00,VWS V14.00,2013-02-15 02:39:00,
2013-02-14 20:41:00,59.4,17.1,28.20,South,174,3.1,10.1,19,0.00,,,0.00,VWS V14.00,2013-02-15 02:41:00,
2013-02-14 20:42:00,59.4,17.1,28.20,SSE,166,6.3,10.1,19,0.00,,,0.00,VWS V14.00,2013-02-15 02:42:00,
2013-02-14 20:44:00,59.4,17.1,28.20,South,169,5.4,5.4,19,0.00,,,0.00,VWS V14.00,2013-02-15 02:44:00,
2013-02-14 20:47:00,59.2,17.0,28.20,SSE,159,5.8,8.1,19,0.00,,,0.00,VWS V14.00,2013-02-15 02:47:00,
2013-02-14 20:48:00,59.2,17.0,28.20,South,178,8.3,8.3,19,0.00,,,0.00,VWS V14.00,2013-02-15 02:48:00,
2013-02-14 20:50:00,59.0,16.8,28.20,South,189,5.4,8.3,19,0.00,,,0.00,VWS V14.00,2013-02-15 02:50:00,
2013-02-14 20:53:00,59.4,17.1,28.20,SSE,155,5.8,8.7,19,0.00,,,0.00,VWS V14.00,2013-02-15 02:53:00,
2013-02-14 20:54:00,59.4,17.1,28.20,South,185,6.3,8.7,19,0.00,,,0.00,VWS V14.00,2013-02-15 02:54:00,
2013-02-14 20:56:00,59.2,17.0,28.20,South,177,5.8,8.7,19,0.00,,,0.00,VWS V14.00,2013-02-15 02:56:00,
2013-02-14 20:58:00,59.4,17.1,28.20,SSW,194,5.4,11.0,19,0.00,,,0.00,VWS V14.00,2013-02-15 02:58:00,
2013-02-14 20:59:00,59.4,17.1,28.20,SSW,194,5.4,11.0,19,0.00,,,0.00,VWS V14.00,2013-02-15 02:59:00,
2013-02-14 21:02:00,58.8,17.9,28.20,South,182,8.7,11.0,20,0.00,,,0.00,VWS V14.00,2013-02-15 03:02:00,
2013-02-14 21:05:00,58.8,17.9,28.20,South,184,5.8,11.0,20,0.00,,,0.00,VWS V14.00,2013-02-15 03:05:00,
2013-02-14 21:06:00,58.6,17.7,28.20,South,189,7.2,11.0,20,0.00,,,0.00,VWS V14.00,2013-02-15 03:06:00,
2013-02-14 21:07:00,58.5,17.6,28.20,SSE,168,6.3,11.0,20,0.00,,,0.00,VWS V14.00,2013-02-15 03:07:00,
2013-02-14 21:10:00,58.5,17.6,28.20,South,187,5.8,11.0,20,0.00,,,0.00,VWS V14.00,2013-02-15 03:10:00,
2013-02-14 21:12:00,58.3,17.4,28.20,South,180,5.4,11.0,20,0.00,,,0.00,VWS V14.00,2013-02-15 03:12:00,
2013-02-14 21:13:00,58.1,17.3,28.20,SSW,193,5.8,11.0,20,0.00,,,0.00,VWS V14.00,2013-02-15 03:13:00,
2013-02-14 21:15:00,57.9,17.1,28.20,South,171,5.8,6.7,20,0.00,,,0.00,VWS V14.00,2013-02-15 03:15:00,
2013-02-14 21:16:00,57.9,17.1,28.20,South,191,5.4,6.7,20,0.00,,,0.00,VWS V14.00,2013-02-15 03:16:00,
2013-02-14 21:17:00,57.9,17.1,28.20,South,184,6.3,6.7,20,0.00,,,0.00,VWS V14.00,2013-02-15 03:17:00,
2013-02-14 21:18:00,57.9,17.1,28.20,SSE,159,8.1,8.1,20,0.00,,,0.00,VWS V14.00,2013-02-15 03:18:00,
2013-02-14 21:21:00,57.6,16.8,28.20,South,180,5.4,8.1,20,0.00,,,0.00,VWS V14.00,2013-02-15 03:21:00,
2013-02-14 21:23:00,57.4,16.7,28.20,SSW,193,4.5,8.1,20,0.00,,,0.00,VWS V14.00,2013-02-15 03:23:00,
2013-02-14 21:24:00,57.6,16.8,28.20,South,179,3.6,8.1,20,0.00,,,0.00,VWS V14.00,2013-02-15 03:24:00,
2013-02-14 21:27:00,57.0,16.4,28.20,SSW,200,4.0,8.1,20,0.00,,,0.00,VWS V14.00,2013-02-15 03:27:00,
2013-02-14 21:28:00,56.8,16.2,28.20,South,189,4.0,8.1,20,0.00,,,0.00,VWS V14.00,2013-02-15 03:28:00,
2013-02-14 21:29:00,56.8,16.2,28.20,South,189,3.1,5.4,20,0.00,,,0.00,VWS V14.00,2013-02-15 03:29:00,
2013-02-14 21:33:00,56.7,16.1,28.20,South,181,4.9,5.8,20,0.00,,,0.00,VWS V14.00,2013-02-15 03:33:00,
2013-02-14 21:34:00,56.7,16.1,28.20,South,176,5.8,5.8,20,0.00,,,0.00,VWS V14.00,2013-02-15 03:34:00,
2013-02-14 21:35:00,56.7,16.1,28.20,South,181,4.0,5.8,20,0.00,,,0.00,VWS V14.00,2013-02-15 03:35:00,
2013-02-14 21:38:00,56.5,15.9,28.20,South,188,3.1,5.8,20,0.00,,,0.00,VWS V14.00,2013-02-15 03:38:00,
2013-02-14 21:40:00,56.7,16.1,28.20,SSW,200,5.4,5.8,20,0.00,,,0.00,VWS V14.00,2013-02-15 03:40:00,
2013-02-14 21:41:00,56.8,16.2,28.20,SSW,195,4.9,5.8,20,0.00,,,0.00,VWS V14.00,2013-02-15 03:41:00,
2013-02-14 21:45:00,56.1,15.6,28.20,SSW,206,4.5,4.5,20,0.00,,,0.00,VWS V14.00,2013-02-15 03:45:00,
2013-02-14 21:46:00,55.9,15.5,28.20,SSW,205,3.1,4.5,20,0.00,,,0.00,VWS V14.00,2013-02-15 03:46:00,
2013-02-14 21:50:00,55.9,15.5,28.23,SSW,208,3.1,4.5,20,0.00,,,0.00,VWS V14.00,2013-02-15 03:50:00,
2013-02-14 21:52:00,55.9,15.5,28.23,SSW,207,4.9,4.9,20,0.00,,,0.00,VWS V14.00,2013-02-15 03:52:00,
2013-02-14 21:55:00,55.6,15.2,28.23,SSW,193,3.6,4.9,20,0.00,,,0.00,VWS V14.00,2013-02-15 03:55:00,
2013-02-14 21:57:00,55.4,15.0,28.23,SSW,192,3.6,4.9,20,0.00,,,0.00,VWS V14.00,2013-02-15 03:57:00,
2013-02-14 21:58:00,55.6,15.2,28.23,SSW,193,4.0,4.9,20,0.00,,,0.00,VWS V14.00,2013-02-15 03:58:00,
2013-02-14 22:00:00,55.6,15.2,28.23,SSW,193,4.0,4.9,20,0.00,,,0.00,VWS V14.00,2013-02-15 04:00:00,
2013-02-14 22:02:00,55.2,16.0,28.23,SSW,192,3.6,4.9,21,0.00,,,0.00,VWS V14.00,2013-02-15 04:02:00,
2013-02-14 22:03:00,55.4,15.0,28.23,SSW,192,3.1,4.9,20,0.00,,,0.00,VWS V14.00,2013-02-15 04:03:00,
2013-02-14 22:06:00,55.4,15.0,28.23,SSW,192,3.6,4.9,20,0.00,,,0.00,VWS V14.00,2013-02-15 04:06:00,
2013-02-14 22:08:00,55.2,16.0,28.23,SSW,192,3.1,4.9,21,0.00,,,0.00,VWS V14.00,2013-02-15 04:08:00,
2013-02-14 22:09:00,55.2,16.0,28.23,SSW,192,2.7,4.9,21,0.00,,,0.00,VWS V14.00,2013-02-15 04:09:00,
2013-02-14 22:11:00,55.2,16.0,28.23,SSW,192,3.1,4.9,21,0.00,,,0.00,VWS V14.00,2013-02-15 04:11:00,
2013-02-14 22:13:00,55.4,15.0,28.23,SSW,212,3.1,3.1,20,0.00,,,0.00,VWS V14.00,2013-02-15 04:13:00,
2013-02-14 22:14:00,55.4,15.0,28.23,SSW,206,4.0,4.0,20,0.00,,,0.00,VWS V14.00,2013-02-15 04:14:00,
2013-02-14 22:16:00,55.2,16.0,28.23,SSW,198,3.6,4.0,21,0.00,,,0.00,VWS V14.00,2013-02-15 04:16:00,
2013-02-14 22:18:00,55.4,15.0,28.23,South,190,3.6,4.9,20,0.00,,,0.00,VWS V14.00,2013-02-15 04:18:00,
2013-02-14 22:19:00,55.4,15.0,28.23,South,190,3.6,4.9,20,0.00,,,0.00,VWS V14.00,2013-02-15 04:19:00,
2013-02-14 22:20:00,55.8,15.3,28.23,South,182,5.4,6.3,20,0.00,,,0.00,VWS V14.00,2013-02-15 04:20:00,
2013-02-14 22:22:00,55.6,15.2,28.23,SSW,200,3.6,6.3,20,0.00,,,0.00,VWS V14.00,2013-02-15 04:22:00,
2013-02-14 22:23:00,55.6,15.2,28.23,SSW,200,3.6,6.3,20,0.00,,,0.00,VWS V14.00,2013-02-15 04:23:00,
2013-02-14 22:24:00,55.8,15.3,28.23,SSW,200,3.6,6.3,20,0.00,,,0.00,VWS V14.00,2013-02-15 04:24:00,
2013-02-14 22:26:00,55.6,15.2,28.23,South,179,3.1,6.3,20,0.00,,,0.00,VWS V14.00,2013-02-15 04:26:00,
2013-02-14 22:27:00,55.4,15.0,28.23,South,190,3.1,6.3,20,0.00,,,0.00,VWS V14.00,2013-02-15 04:27:00,
2013-02-14 22:28:00,55.4,15.0,28.23,South,190,2.7,6.3,20,0.00,,,0.00,VWS V14.00,2013-02-15 04:28:00,
2013-02-14 22:29:00,55.2,16.0,28.23,South,182,4.9,4.9,21,0.00,,,0.00,VWS V14.00,2013-02-15 04:29:00,
2013-02-14 22:31:00,55.6,15.2,28.23,SSW,200,3.6,5.4,20,0.00,,,0.00,VWS V14.00,2013-02-15 04:31:00,
2013-02-14 22:32:00,55.6,15.2,28.23,SSW,200,3.6,5.4,20,0.00,,,0.00,VWS V14.00,2013-02-15 04:32:00,
2013-02-14 22:34:00,55.9,15.5,28.23,South,189,4.0,5.4,20,0.00,,,0.00,VWS V14.00,2013-02-15 04:34:00,
2013-02-14 22:35:00,55.8,15.3,28.23,SSW,195,4.0,5.4,20,0.00,,,0.00,VWS V14.00,2013-02-15 04:35:00,
2013-02-14 22:37:00,55.8,15.3,28.23,South,184,3.6,5.4,20,0.00,,,0.00,VWS V14.00,2013-02-15 04:37:00,
2013-02-14 22:38:00,55.8,15.3,28.23,South,177,3.6,5.4,20,0.00,,,0.00,VWS V14.00,2013-02-15 04:38:00,
2013-02-14 22:41:00,55.8,15.3,28.23,South,178,4.0,5.4,20,0.00,,,0.00,VWS V14.00,2013-02-15 04:41:00,
2013-02-14 22:43:00,55.6,15.2,28.23,South,187,3.1,5.4,20,0.00,,,0.00,VWS V14.00,2013-02-15 04:43:00,
2013-02-14 22:44:00,55.9,15.5,28.23,South,183,4.0,4.9,20,0.00,,,0.00,VWS V14.00,2013-02-15 04:44:00,
2013-02-14 22:46:00,56.3,15.8,28.23,SW,229,3.6,5.8,20,0.00,,,0.00,VWS V14.00,2013-02-15 04:46:00,
2013-02-14 22:47:00,55.9,15.5,28.23,South,176,2.7,5.8,20,0.00,,,0.00,VWS V14.00,2013-02-15 04:47:00,
2013-02-14 22:48:00,55.9,15.5,28.23,SSW,204,3.6,5.8,20,0.00,,,0.00,VWS V14.00,2013-02-15 04:48:00,
2013-02-14 22:50:00,55.9,15.5,28.23,South,181,4.0,5.8,20,0.00,,,0.00,VWS V14.00,2013-02-15 04:50:00,
2013-02-14 22:52:00,55.8,15.3,28.23,South,183,3.6,5.8,20,0.00,,,0.00,VWS V14.00,2013-02-15 04:52:00,
2013-02-14 22:53:00,55.6,15.2,28.23,SSW,192,3.6,5.8,20,0.00,,,0.00,VWS V14.00,2013-02-15 04:53:00,
2013-02-14 22:54:00,55.8,15.3,28.23,South,185,3.6,5.8,20,0.00,,,0.00,VWS V14.00,2013-02-15 04:54:00,
2013-02-14 22:55:00,55.6,15.2,28.23,South,183,5.4,5.8,20,0.00,,,0.00,VWS V14.00,2013-02-15 04:55:00,
2013-02-14 22:58:00,55.6,15.2,28.23,South,185,3.6,5.8,20,0.00,,,0.00,VWS V14.00,2013-02-15 04:58:00,
2013-02-14 22:59:00,55.6,15.2,28.23,South,185,3.1,5.8,20,0.00,,,0.00,VWS V14.00,2013-02-15 04:59:00,
2013-02-14 23:00:00,55.6,15.2,28.23,South,185,3.1,5.8,20,0.00,,,0.00,VWS V14.00,2013-02-15 05:00:00,
2013-02-14 23:05:00,55.4,15.0,28.23,South,172,2.7,6.3,20,0.00,,,0.00,VWS V14.00,2013-02-15 05:05:00,
2013-02-14 23:06:00,55.6,15.2,28.23,SSW,192,5.8,6.3,20,0.00,,,0.00,VWS V14.00,2013-02-15 05:06:00,
2013-02-14 23:10:00,54.9,15.7,28.23,South,191,3.6,6.3,21,0.00,,,0.00,VWS V14.00,2013-02-15 05:10:00,
2013-02-14 23:11:00,55.0,15.8,28.23,South,187,4.0,6.3,21,0.00,,,0.00,VWS V14.00,2013-02-15 05:11:00,
2013-02-14 23:12:00,55.2,16.0,28.23,South,169,4.0,6.3,21,0.00,,,0.00,VWS V14.00,2013-02-15 05:12:00,
2013-02-14 23:16:00,55.4,15.0,28.23,SSW,193,3.6,5.8,20,0.00,,,0.00,VWS V14.00,2013-02-15 05:16:00,
2013-02-14 23:17:00,55.4,15.0,28.23,SSW,192,3.1,5.8,20,0.00,,,0.00,VWS V14.00,2013-02-15 05:17:00,
2013-02-14 23:21:00,55.8,15.3,28.23,South,182,4.0,8.3,20,0.00,,,0.00,VWS V14.00,2013-02-15 05:21:00,
2013-02-14 23:22:00,55.9,15.5,28.23,South,181,4.0,8.3,20,0.00,,,0.00,VWS V14.00,2013-02-15 05:22:00,
2013-02-14 23:23:00,55.9,15.5,28.23,South,187,5.8,8.3,20,0.00,,,0.00,VWS V14.00,2013-02-15 05:23:00,
2013-02-14 23:27:00,55.6,15.2,28.23,South,172,5.8,8.3,20,0.00,,,0.00,VWS V14.00,2013-02-15 05:27:00,
2013-02-14 23:28:00,55.2,16.0,28.23,South,178,3.1,8.3,21,0.00,,,0.00,VWS V14.00,2013-02-15 05:28:00,
2013-02-14 23:32:00,55.8,15.3,28.23,South,177,4.9,7.6,20,0.00,,,0.00,VWS V14.00,2013-02-15 05:32:00,
2013-02-14 23:33:00,55.9,15.5,28.23,South,190,5.8,7.6,20,0.00,,,0.00,VWS V14.00,2013-02-15 05:33:00,
2013-02-14 23:34:00,55.8,15.3,28.23,South,183,3.1,7.6,20,0.00,,,0.00,VWS V14.00,2013-02-15 05:34:00,
2013-02-14 23:37:00,56.1,15.6,28.23,South,172,3.6,7.6,20,0.00,,,0.00,VWS V14.00,2013-02-15 05:37:00,
2013-02-14 23:39:00,55.8,15.3,28.23,South,171,3.6,7.6,20,0.00,,,0.00,VWS V14.00,2013-02-15 05:39:00,
2013-02-14 23:42:00,55.6,15.2,28.23,South,182,0.0,7.6,20,0.00,,,0.00,VWS V14.00,2013-02-15 05:42:00,
2013-02-14 23:44:00,55.6,15.2,28.23,South,181,0.0,0.0,20,0.00,,,0.00,VWS V14.00,2013-02-15 05:44:00,
2013-02-14 23:45:00,55.6,15.2,28.23,South,177,0.0,0.0,20,0.00,,,0.00,VWS V14.00,2013-02-15 05:45:00,
2013-02-14 23:48:00,55.6,15.2,28.23,South,185,0.0,0.0,20,0.00,,,0.00,VWS V14.00,2013-02-15 05:48:00,
2013-02-14 23:49:00,55.9,15.5,28.23,SSW,194,0.0,0.0,20,0.00,,,0.00,VWS V14.00,2013-02-15 05:49:00,
2013-02-14 23:50:00,55.9,15.5,28.23,SSW,209,0.0,0.0,20,0.00,,,0.00,VWS V14.00,2013-02-15 05:50:00,
2013-02-14 23:53:00,55.6,15.2,28.23,South,184,0.0,0.0,20,0.00,,,0.00,VWS V14.00,2013-02-15 05:53:00,
2013-02-14 23:54:00,55.4,15.0,28.23,SSE,158,0.0,0.0,20,0.00,,,0.00,VWS V14.00,2013-02-15 05:54:00,
2013-02-14 23:55:00,55.4,15.0,28.23,SSW,201,0.0,0.0,20,0.00,,,0.00,VWS V14.00,2013-02-15 05:55:00,
2013-02-14 23:59:00,55.6,15.2,28.23,SSW,204,0.0,0.0,20,0.00,,,0.00,VWS V14.00,2013-02-15 05:59:00,